ECMWFFLT1_500_rhum_102.txt.gz
RH
17 18 20 22 26 31 37 42 47 51 54 57 58 56 53 51 48 45 43 41 39 38 36 34 32 31 31 31 31 31 32 32 32 31 29 26 24 22 20 18 16 14 12 12 14 14 14 17 19 21 23 24 23 21 19 16 14 13 11 10 9 9 10
18 19 20 22 24 27 30 33 37 40 42 43 43 41 39 38 37 35 35 34 33 34 34 34 33 34 35 36 37 38 40 40 39 37 33 30 28 25 23 21 18 15 12 10 10 11 11 11 13 16 19 22 25 25 24 22 19 17 15 12 11 10 10
18 19 21 22 23 24 26 28 30 32 33 34 34 34 34 34 34 34 34 34 35 36 37 37 37 39 41 43 45 48 50 49 45 41 36 33 31 28 26 25 23 19 15 12 11 11 10 10 10 10 12 15 19 23 26 27 25 22 20 17 14 12 11
18 20 22 22 23 24 25 26 27 29 30 31 32 32 33 35 35 36 36 37 38 39 39 40 42 46 51 55 57 58 56 52 47 43 40 36 34 31 29 27 25 22 19 15 13 13 12 12 12 11 10 10 12 15 20 24 27 28 26 23 20 16 13
18 20 21 23 23 24 24 25 26 28 30 32 33 34 35 36 37 37 38 40 42 43 45 48 52 58 64 65 64 60 56 52 49 46 42 39 36 33 29 27 25 22 20 17 15 13 13 13 13 12 12 11 11 11 12 16 21 27 29 29 27 23 18
18 19 21 22 23 23 24 25 26 27 30 32 34 35 36 37 38 40 42 45 47 50 54 59 64 69 70 67 62 59 56 53 50 46 42 37 33 30 26 24 22 20 18 17 15 14 14 14 14 13 13 13 13 12 11 11 13 18 25 29 32 31 26
17 18 19 20 21 22 22 23 25 27 30 33 34 36 37 39 42 46 49 51 54 58 63 69 73 72 69 65 62 60 56 53 48 43 38 34 29 26 22 20 18 18 17 16 15 14 14 14 14 14 14 13 13 13 12 12 11 12 16 22 28 32 33
17 18 19 19 20 21 21 23 26 29 32 34 36 40 42 45 49 52 54 56 59 64 70 75 75 72 69 68 66 62 58 53 48 42 36 31 27 23 20 19 18 17 17 16 15 15 14 13 13 13 14 14 13 13 13 12 12 11 11 14 20 26 32
20 20 21 21 22 23 25 27 30 33 36 39 43 47 49 52 55 57 58 60 64 71 77 79 77 75 75 75 72 69 64 56 49 40 33 28 25 21 20 19 19 19 18 17 16 14 13 13 12 12 12 12 13 13 13 13 13 12 12 12 13 18 24
25 25 26 27 28 30 32 34 37 40 43 47 50 53 55 59 61 60 60 64 69 75 79 79 77 77 77 77 76 73 65 56 47 38 30 26 23 22 22 21 20 20 19 18 17 15 14 13 12 12 13 12 12 13 13 13 13 12 12 12 12 13 16
30 31 32 33 35 37 39 42 46 48 51 57 61 63 63 62 60 59 61 66 71 74 75 74 74 75 75 76 76 70 60 49 41 34 30 27 26 25 24 24 24 23 23 22 19 18 18 18 16 16 16 13 12 13 13 13 14 13 13 13 12 12 13
34 35 37 38 41 44 47 52 56 59 64 70 73 72 67 60 56 59 65 71 74 74 74 74 73 73 76 78 75 64 52 43 36 32 30 28 28 29 30 32 32 31 30 29 27 24 23 24 24 24 24 21 16 14 13 13 13 13 13 14 13 12 13
36 39 40 42 45 49 56 63 67 69 73 77 78 73 64 57 57 64 71 75 77 77 77 76 75 77 82 81 69 54 43 37 33 31 31 32 34 36 39 43 44 42 38 35 33 30 29 31 32 30 31 32 25 17 14 13 13 14 13 14 14 14 13
39 41 43 44 47 53 62 70 73 73 76 79 78 71 62 58 62 70 77 80 81 81 80 79 82 86 85 75 59 45 38 34 33 34 34 37 41 45 49 52 52 51 49 44 39 34 32 37 42 39 39 42 36 23 18 17 15 14 14 14 14 15 14
41 43 45 46 50 57 67 74 74 73 77 81 79 69 61 62 68 75 81 84 85 83 81 84 89 90 80 63 48 41 38 37 36 36 39 45 52 56 57 56 56 58 58 57 51 42 36 37 43 45 47 52 50 36 25 22 20 16 15 15 15 15 14
42 45 46 49 54 61 69 75 75 75 79 84 80 69 62 65 72 78 84 87 87 84 84 90 95 91 73 53 44 44 43 40 38 40 51 62 69 71 68 64 67 71 71 69 64 55 46 41 41 44 48 58 65 57 41 32 26 20 17 16 15 15 15
44 48 48 51 58 64 69 76 80 79 81 85 80 70 65 69 75 81 87 88 87 85 88 95 98 87 66 50 47 48 46 46 49 57 67 74 76 78 77 77 84 89 88 86 80 70 61 54 51 52 53 58 66 67 62 51 34 23 21 18 15 15 14
45 51 51 55 61 65 71 79 84 82 82 85 82 73 68 71 77 83 87 86 84 85 90 97 97 81 59 48 49 51 52 58 66 74 79 77 72 74 81 90 96 96 94 95 92 84 76 68 64 63 61 60 60 61 66 63 46 35 31 23 15 16 16
44 52 55 58 61 66 72 79 84 84 82 84 84 77 71 73 78 83 84 82 81 85 92 98 91 74 56 49 52 58 64 71 78 82 81 75 69 74 84 91 90 89 93 99 100 96 84 71 66 64 59 58 59 58 60 59 50 43 39 27 18 18 19
44 52 57 59 61 67 73 78 83 85 83 83 85 81 75 75 80 82 81 80 80 84 92 95 83 66 53 51 60 71 76 79 83 82 77 73 75 80 81 80 81 88 96 100 103 102 94 83 80 78 71 64 60 57 60 63 57 47 39 31 27 26 23
43 51 56 58 60 66 75 80 83 85 84 84 86 85 80 79 83 83 79 78 80 85 90 90 78 61 51 54 70 84 84 81 82 79 74 76 82 80 74 73 81 89 91 90 93 98 99 100 102 102 99 92 80 66 62 66 67 62 53 42 34 30 26
40 50 55 56 58 66 77 83 83 83 84 85 88 91 89 85 85 84 78 76 80 84 88 86 73 57 49 58 79 93 89 82 81 79 77 80 80 75 71 72 78 82 84 86 90 92 96 101 104 106 107 107 101 89 77 68 64 65 67 60 45 34 28
38 47 53 54 56 65 78 85 84 83 85 89 92 96 98 95 90 86 80 77 80 83 86 84 73 54 46 59 85 97 90 83 82 82 80 79 76 74 72 72 75 80 84 88 90 91 95 100 103 105 107 106 106 104 95 80 65 58 63 66 56 42 33
35 43 49 51 54 66 80 87 86 86 90 93 96 99 102 101 96 90 85 83 84 86 87 85 74 54 42 57 85 98 91 85 84 83 80 79 78 77 75 74 77 79 80 82 86 89 94 99 102 102 103 104 104 103 99 94 86 79 78 79 69 52 41
32 40 47 49 52 65 83 91 90 92 96 96 96 98 100 101 99 96 93 91 91 93 92 87 76 56 39 49 77 95 93 88 87 84 82 81 81 81 80 81 81 80 80 84 91 95 98 102 103 100 100 101 100 99 100 100 98 95 94 92 81 63 48
31 36 43 47 50 62 83 94 95 96 98 94 93 97 102 104 105 104 99 94 95 99 99 93 84 65 41 38 63 87 94 91 90 89 86 85 85 86 88 88 88 88 90 94 99 103 106 106 104 102 104 106 104 104 105 102 97 92 91 94 91 80 66
30 35 40 45 49 60 78 93 96 96 96 93 93 100 106 107 107 106 104 100 100 105 105 102 99 84 54 34 47 75 90 91 90 92 91 89 89 90 92 96 98 97 98 100 104 108 109 105 102 102 104 103 101 103 103 97 92 92 97 102 102 95 90
29 33 38 42 46 56 73 90 97 98 98 96 95 100 106 108 107 106 106 104 102 103 103 101 102 97 72 42 37 60 83 89 88 91 93 92 93 95 97 100 103 103 102 104 106 107 103 95 90 89 88 87 89 92 91 83 80 88 100 105 100 95 99
31 32 36 40 45 53 69 87 99 102 101 96 92 92 96 101 103 101 98 96 93 92 93 93 94 94 82 55 37 46 72 88 89 89 93 94 95 100 102 102 103 105 104 103 100 96 91 83 78 75 73 75 81 85 82 78 80 90 100 99 92 91 98
31 31 34 38 42 48 61 78 91 98 96 90 85 83 85 93 97 95 92 92 89 87 89 91 92 94 89 71 46 37 55 81 91 90 92 94 95 98 100 101 101 102 102 98 92 86 82 76 71 66 63 65 70 72 71 73 79 87 91 87 83 87 96
31 30 32 35 39 45 54 69 82 89 87 82 78 77 80 91 99 97 94 95 93 90 91 93 93 96 96 85 62 39 40 65 88 93 92 94 95 93 94 97 98 98 97 94 89 85 80 73 65 62 60 58 57 56 57 61 70 78 83 84 84 89 95
34 33 33 35 38 43 51 65 78 87 86 81 78 77 80 91 100 99 98 100 97 93 94 94 92 94 96 93 78 53 36 47 74 92 96 95 95 92 90 93 96 96 94 94 91 87 83 76 69 67 64 56 52 52 53 58 71 81 85 86 88 90 92
36 35 35 36 39 43 50 61 75 85 86 82 79 78 82 92 99 99 98 101 100 96 96 96 93 92 94 95 88 67 42 36 56 83 96 97 95 94 91 92 95 96 94 96 96 93 89 82 73 67 61 54 53 56 60 69 81 85 82 81 84 87 90
43 39 37 37 40 43 50 60 74 84 86 83 80 78 81 91 99 100 98 99 99 97 98 99 99 97 96 97 95 81 55 36 40 67 92 99 96 94 93 93 96 97 95 97 99 99 96 86 71 58 52 52 54 58 66 78 84 78 72 74 80 85 90
49 45 41 39 41 45 51 62 77 89 91 88 85 83 85 93 100 102 102 101 99 97 97 98 100 101 100 100 101 92 70 43 33 51 82 99 98 94 93 94 97 98 98 99 101 102 101 93 77 62 55 55 58 63 74 87 87 75 72 81 88 92 98
48 46 43 40 41 45 52 63 79 92 96 94 93 91 92 97 102 102 103 105 104 102 99 97 97 99 99 101 104 99 81 53 32 38 68 95 101 96 93 94 97 99 100 100 101 102 102 100 92 80 69 67 72 79 88 99 100 91 87 91 94 97 101

ECMWFFLT1_500_rhum_105.txt.gz
RH
30 28 27 26 20 12 10 13 14 14 14 14 14 14 16 18 18 19 20 21 24 28 32 37 42 46 48 48 48 48 47 46 46 45 44 42 41 40 39 38 39 36 29 30 32 30 27 27 27 27 28 30 30 30 29 27 26 26 25 24 23 21 20
31 28 28 26 18 11 12 14 15 16 16 15 15 15 16 17 17 18 19 21 22 25 28 30 32 35 36 36 37 36 37 38 39 39 38 38 36 34 34 33 31 29 26 23 23 22 21 20 19 19 19 20 21 23 25 26 26 27 27 26 25 23 22
31 29 29 26 17 11 13 16 16 18 18 17 16 15 16 16 17 18 19 20 22 23 25 26 28 30 31 33 34 35 38 40 41 42 41 41 40 37 36 37 35 32 28 23 21 21 20 19 19 17 16 16 16 16 17 18 20 23 25 26 26 25 23
32 30 31 26 15 11 14 16 18 21 21 20 19 17 17 17 16 17 18 19 21 22 24 26 28 31 33 35 38 42 46 48 49 50 48 46 46 45 43 43 41 38 34 28 24 23 23 22 21 21 20 19 19 17 16 15 14 15 17 20 23 24 24
32 31 32 26 15 11 15 18 20 24 24 24 23 21 20 19 18 19 19 20 22 23 26 28 31 35 40 44 48 52 55 58 59 59 58 56 55 53 51 49 46 43 40 35 29 26 25 24 24 23 22 23 23 22 20 18 16 15 13 13 15 18 22
33 31 32 26 15 12 16 19 22 27 27 27 26 25 24 24 23 24 24 25 27 30 33 36 40 45 50 54 59 63 66 68 68 67 64 61 59 57 55 52 50 48 44 40 35 31 28 27 27 27 25 25 25 24 23 21 20 19 17 14 12 12 14
33 32 33 27 16 13 16 20 25 29 30 29 29 28 28 28 28 29 30 32 35 38 42 46 50 56 62 69 73 76 76 75 71 67 63 61 59 59 57 53 51 48 45 41 36 33 31 30 30 29 28 28 27 25 23 23 22 21 20 18 15 13 12
33 32 34 28 17 14 17 21 26 31 32 31 31 31 31 32 32 34 36 39 42 46 51 57 65 72 79 83 84 82 78 73 68 64 62 61 61 58 55 52 49 46 43 39 35 32 31 30 30 29 28 27 26 24 23 22 21 20 20 20 18 16 14
34 33 34 29 18 15 17 21 27 33 33 33 33 33 34 34 36 37 40 45 50 57 64 71 78 83 85 83 81 78 74 70 69 67 64 63 62 59 56 53 48 44 40 36 32 29 27 26 25 25 25 25 24 23 22 21 20 18 18 19 19 17 16
34 34 35 29 19 16 18 21 28 34 36 36 35 35 36 37 38 41 45 50 57 65 74 82 85 86 86 84 82 80 78 77 76 75 72 67 64 61 59 54 48 42 38 34 30 26 25 25 24 24 24 23 22 22 21 20 19 18 17 17 16 17 17
34 35 36 30 21 18 19 21 28 34 37 38 38 37 37 38 41 45 51 57 64 70 78 85 88 88 88 87 85 83 82 82 81 78 73 68 64 61 55 48 41 37 35 33 30 28 27 25 24 26 27 25 24 23 22 20 19 17 17 16 16 15 16
34 36 37 30 22 20 20 21 27 34 39 41 41 40 40 40 41 46 53 61 67 72 76 81 84 85 84 84 83 83 83 81 78 74 70 67 63 57 48 40 35 33 32 31 29 29 29 28 28 27 28 28 27 25 24 22 20 19 17 17 16 15 15
35 38 38 30 24 23 22 21 26 34 40 44 45 45 45 44 44 48 54 62 68 71 75 78 79 80 81 83 84 83 81 77 73 72 70 67 61 50 40 36 35 34 34 35 34 32 31 38 41 36 35 38 33 27 26 27 25 23 21 18 16 15 14
36 40 39 30 25 26 25 22 25 33 41 47 48 49 50 50 50 54 59 64 69 72 75 77 78 79 82 85 86 84 80 76 73 71 69 64 52 40 35 36 39 46 55 59 57 47 42 49 56 52 50 54 50 37 31 32 32 30 26 21 18 15 13
37 42 40 31 27 30 29 24 24 31 41 49 52 52 54 55 57 61 64 67 72 75 77 79 81 83 86 87 86 84 81 77 73 71 68 56 40 32 36 44 55 67 78 82 79 70 62 63 67 66 63 66 66 56 45 39 37 34 32 29 23 18 15
38 43 40 32 31 36 33 25 24 30 40 50 55 55 56 59 61 63 67 72 77 78 80 84 87 89 90 88 86 86 84 79 74 72 63 46 33 34 43 56 74 85 87 86 83 82 79 75 74 74 72 72 74 71 64 56 45 37 36 36 31 26 21
39 44 42 35 37 43 38 27 25 29 38 50 57 57 57 59 61 66 72 76 80 81 84 90 94 94 90 87 88 88 85 81 79 73 56 36 30 38 51 70 89 96 93 90 85 82 83 81 78 76 75 76 78 78 77 71 57 48 45 40 34 31 28
38 42 43 40 43 49 43 30 26 29 38 51 59 58 57 58 62 69 76 78 80 83 88 95 99 96 90 89 91 91 85 84 84 75 53 32 29 42 61 80 90 88 88 92 93 90 86 81 78 75 73 76 79 80 82 76 63 56 53 44 35 32 30
36 39 45 50 53 55 47 32 26 29 37 50 59 58 56 57 62 71 77 77 80 85 91 97 99 96 92 92 94 91 86 86 87 76 52 31 31 49 68 78 80 79 83 91 96 94 85 78 79 78 75 78 80 80 84 83 72 60 52 48 45 43 38
35 37 47 60 66 65 53 35 26 30 37 48 57 57 55 57 63 72 76 76 79 85 90 95 96 93 94 97 97 92 87 88 89 78 53 31 34 52 66 71 77 82 84 86 88 86 80 77 79 78 76 78 81 82 85 88 84 71 57 50 47 47 46
36 38 49 68 79 76 58 37 28 30 36 45 54 56 54 56 64 73 75 75 79 83 85 88 89 90 95 99 98 94 91 91 92 82 57 35 36 52 63 69 76 82 83 84 83 80 80 80 80 79 78 77 76 78 80 82 82 77 68 60 50 45 46
37 40 51 73 89 83 60 39 30 31 35 43 50 52 52 55 64 73 74 74 77 80 80 80 81 86 94 97 96 94 94 93 94 88 65 40 36 51 63 69 74 78 82 87 86 81 81 85 87 87 87 84 81 80 79 77 76 74 69 65 56 48 45
39 42 53 75 93 87 62 40 32 32 35 41 46 50 51 55 65 74 76 74 76 77 76 75 77 82 87 89 90 92 92 92 93 92 73 46 37 51 65 70 73 77 81 86 90 88 86 89 91 92 95 96 93 91 90 88 87 85 79 72 63 54 47
40 44 55 76 93 86 62 42 34 33 35 39 44 48 49 54 66 77 80 79 77 76 73 70 71 74 75 79 85 89 90 90 91 92 80 53 39 52 69 72 73 78 82 86 91 93 92 93 93 93 97 98 95 93 95 94 94 95 93 87 78 67 58
43 48 60 78 90 81 60 44 36 34 35 38 42 45 48 54 67 81 88 87 83 79 73 66 64 68 71 76 82 86 89 89 88 91 86 63 41 49 71 78 76 79 85 89 92 94 95 96 94 90 91 93 91 92 95 96 96 97 96 90 82 75 72
46 53 64 80 87 75 56 45 41 38 37 39 41 44 47 52 66 84 93 92 89 86 78 68 66 71 74 76 79 82 87 89 86 87 89 74 48 43 66 83 82 81 88 93 96 98 97 96 93 90 90 92 93 94 98 100 99 99 98 91 79 71 75
53 60 69 80 82 68 52 46 44 41 40 41 42 43 46 50 63 82 92 93 96 96 85 76 78 83 82 83 86 88 89 90 87 85 88 82 57 39 54 81 88 86 90 97 101 103 102 99 96 94 93 94 96 99 104 104 99 99 102 95 79 70 78
57 62 68 75 72 59 48 47 46 43 42 42 41 43 46 49 61 80 91 96 103 103 92 87 94 98 96 94 96 97 97 95 94 91 92 90 71 42 40 66 86 88 89 96 101 104 105 102 100 99 97 96 99 106 109 102 94 92 95 89 78 76 87
62 69 71 71 65 53 46 48 51 49 47 45 43 43 46 51 63 82 95 102 107 106 100 99 102 103 102 101 102 105 105 102 100 98 95 96 86 56 35 49 77 89 89 94 99 102 103 103 104 104 102 101 105 110 103 88 77 73 76 78 77 81 91
57 65 67 63 55 47 44 46 49 49 48 48 47 46 48 53 63 79 96 105 107 104 104 106 105 103 105 106 106 108 108 103 101 99 96 96 92 70 40 37 64 88 94 96 99 100 101 103 104 107 107 105 104 99 84 67 58 56 60 67 73 81 91
58 54 54 51 44 41 41 42 43 43 43 43 45 45 47 51 57 70 89 103 103 98 99 104 106 107 108 108 107 107 106 103 101 100 98 98 98 83 51 31 48 79 96 99 100 101 101 102 104 107 109 105 96 85 71 58 52 50 51 57 66 77 86
70 55 48 45 41 40 41 42 42 42 40 39 40 41 43 49 58 69 83 95 97 94 96 99 102 105 106 105 106 106 104 103 102 101 100 101 103 96 67 35 33 64 91 99 100 102 104 104 105 108 108 100 91 83 74 63 55 52 52 53 60 73 80
75 57 45 42 40 40 41 42 42 41 40 38 38 39 41 49 62 75 85 92 95 94 94 95 96 100 101 102 103 104 103 102 102 101 101 102 104 103 83 46 28 47 81 98 100 101 104 104 105 107 105 97 88 81 73 64 58 55 54 54 59 70 80
75 59 48 44 42 41 43 44 42 40 39 36 36 38 40 46 59 73 83 90 93 94 94 94 95 97 99 101 102 103 102 102 103 103 103 103 104 103 90 58 30 36 69 95 100 99 102 104 104 106 103 97 89 80 68 60 57 56 55 56 60 70 80
65 58 53 49 45 44 46 46 44 42 39 37 35 37 40 45 56 69 82 90 93 93 94 95 96 97 100 103 103 103 104 104 105 106 105 103 104 103 91 64 36 31 59 90 100 99 102 104 104 105 104 100 95 87 73 61 55 54 55 58 64 75 84
53 53 53 52 48 46 46 46 45 43 40 38 37 38 41 47 56 70 85 95 96 94 92 92 93 96 100 103 103 103 103 103 104 108 107 103 104 105 92 67 40 29 50 86 102 101 102 104 103 104 104 101 100 97 86 73 64 60 61 67 74 83 92

ECMWFFLT1_500_rhum_111.txt.gz
RH
92 92 95 95 93 91 89 89 90 88 82 78 77 76 75 73 69 66 63 61 60 60 59 55 49 43 38 32 25 19 19 21 18 18 23 25 23 22 21 19 18 16 15 15 15 15 17 20 23 26 30 33 35 37 40 43 44 47 52 59 65 70 72
94 97 99 97 95 93 93 93 92 88 83 82 83 81 78 75 71 68 65 64 64 63 59 53 46 41 34 28 21 18 21 22 19 22 27 27 24 23 22 21 19 18 17 17 16 16 17 19 21 23 27 31 33 36 39 41 43 44 45 48 52 58 64
98 101 102 99 96 96 98 97 92 88 87 89 88 84 81 77 73 70 68 68 66 63 57 50 43 37 29 23 19 19 25 23 20 27 31 28 26 24 23 23 21 19 19 19 20 20 20 21 21 21 24 26 27 28 31 33 35 36 38 41 43 45 49
101 104 102 99 99 100 101 97 92 91 93 93 90 86 83 78 74 72 71 70 66 60 53 46 39 31 24 20 19 24 29 24 23 32 34 30 28 26 25 25 23 21 21 20 22 25 27 28 28 27 29 30 30 30 30 29 29 30 31 32 34 34 36
103 104 102 100 102 104 102 97 95 96 98 95 91 87 83 79 76 74 72 69 63 56 48 41 33 25 21 20 23 30 31 25 27 36 36 32 31 30 28 27 25 25 24 23 23 27 31 34 34 35 38 40 41 42 43 42 41 40 38 35 33 31 30
104 104 102 102 105 104 101 99 99 101 101 98 93 89 84 80 78 75 71 65 57 50 42 34 26 21 21 24 29 36 33 26 31 39 37 35 34 33 32 30 29 30 29 27 27 28 32 36 38 39 42 47 50 50 52 53 52 50 47 43 39 36 34
104 103 103 104 106 103 101 101 103 104 103 99 95 91 85 82 78 73 67 58 51 43 34 27 22 21 27 33 38 41 35 28 35 42 39 37 38 37 36 34 35 35 33 32 32 33 35 38 42 44 46 53 57 56 55 53 51 51 51 49 44 39 37
104 104 103 104 105 104 103 104 105 105 103 100 96 91 86 81 75 68 60 51 43 35 26 22 22 27 37 42 46 48 37 29 38 44 41 41 41 41 40 40 40 39 38 37 37 39 42 43 47 51 54 57 57 54 53 53 48 44 45 47 44 39 37
102 103 103 104 104 104 105 107 106 106 104 100 95 90 84 77 69 60 52 43 35 26 21 21 25 36 45 48 52 54 38 29 39 45 43 45 47 46 46 45 44 43 43 43 42 43 47 49 53 59 60 57 55 52 51 50 47 43 41 41 39 37 38
102 103 103 104 105 106 106 107 106 106 104 98 93 87 79 69 60 52 44 34 26 20 19 24 34 45 51 52 58 56 38 29 40 46 46 50 53 53 52 50 49 50 48 47 47 50 55 58 61 66 65 58 56 56 51 49 47 45 42 39 33 31 31
103 103 103 102 104 106 106 105 106 106 101 95 89 81 70 60 51 43 34 25 21 19 21 32 47 61 69 73 70 56 36 31 41 48 50 54 56 57 57 55 54 54 52 51 52 57 63 64 64 67 64 58 57 56 53 51 49 43 38 32 25 21 19
101 101 103 104 105 105 104 105 106 103 96 89 82 72 61 51 41 32 25 20 18 18 21 31 46 61 83 97 83 54 34 31 41 51 55 57 59 60 62 63 60 57 56 57 60 62 65 67 66 65 63 62 61 59 56 55 52 45 36 27 19 16 17
102 102 104 106 106 105 105 106 104 97 89 80 72 62 51 41 30 24 21 18 18 19 21 29 36 45 71 93 78 48 33 32 40 52 58 59 61 62 64 65 62 59 59 62 64 64 68 74 74 69 69 71 68 64 62 61 55 45 32 21 18 21 26
103 103 103 105 106 105 103 102 98 90 80 70 61 51 40 30 23 20 20 19 21 23 25 31 36 43 63 79 65 42 35 36 42 54 61 61 62 62 64 64 64 67 68 66 64 62 66 72 71 66 66 68 66 63 63 60 51 37 24 20 27 34 36
102 104 104 106 106 102 98 97 91 80 69 60 50 39 29 23 21 20 21 23 26 30 34 37 43 53 68 72 55 38 35 39 46 57 64 65 65 64 63 66 73 79 80 76 73 69 65 65 64 62 61 60 61 63 62 56 44 28 20 26 37 43 42
102 105 107 107 104 98 93 89 80 69 59 49 38 28 22 21 21 22 23 27 31 36 40 46 55 67 76 69 48 36 36 40 48 60 66 67 66 63 63 74 85 88 86 84 82 75 70 68 68 65 62 61 65 66 63 56 41 25 22 32 41 45 47
103 105 107 105 100 93 86 79 69 58 47 37 27 22 21 21 22 24 27 32 38 42 47 58 71 79 78 63 44 36 37 40 47 59 65 65 63 60 65 80 92 92 88 86 81 76 74 75 74 70 68 69 71 68 63 56 40 24 24 36 45 47 49
105 107 106 102 95 87 77 67 58 46 34 26 22 21 22 23 24 27 32 36 41 48 61 78 89 86 74 57 43 36 37 39 47 57 61 62 60 59 68 84 93 91 88 85 80 77 77 76 74 74 76 77 75 70 66 59 42 24 23 38 48 49 49
106 105 101 97 89 78 67 56 45 34 25 21 22 23 24 24 26 31 36 39 43 55 74 90 92 82 66 52 42 37 37 39 45 53 58 59 57 58 71 88 94 92 91 88 83 81 79 78 78 79 81 81 78 72 70 66 49 26 23 39 49 49 47
104 99 94 89 80 69 57 44 32 24 21 21 23 25 25 25 29 36 40 42 49 65 84 92 85 71 59 49 41 38 38 39 44 51 56 56 55 59 71 83 89 91 91 87 83 85 87 90 92 94 94 94 89 83 76 72 56 30 23 40 51 50 49
98 90 84 79 69 58 46 33 23 20 21 23 25 27 27 27 33 39 40 42 53 69 81 80 71 60 53 47 41 38 38 39 43 50 54 53 54 58 67 79 88 92 88 80 79 83 87 93 98 102 105 104 102 97 87 80 67 38 22 36 52 53 51
89 81 75 68 58 47 34 24 19 20 22 24 26 28 29 31 36 41 41 42 54 66 69 63 57 53 50 47 43 39 38 39 43 48 51 52 53 55 66 82 92 89 80 73 74 76 78 85 92 95 97 98 97 95 89 85 79 51 25 33 53 56 53
81 73 66 58 47 35 26 20 20 21 24 26 28 29 32 35 38 42 41 40 47 55 55 51 51 51 50 49 46 42 39 39 42 46 49 50 51 55 71 90 94 84 74 71 72 72 74 82 88 89 90 91 90 89 86 87 86 63 31 31 54 62 58
74 66 58 47 36 26 21 20 22 24 26 27 28 30 35 38 40 42 42 40 41 43 44 44 46 47 48 49 48 45 42 39 40 44 47 49 51 58 77 94 92 80 74 73 76 77 79 84 89 90 90 89 86 84 85 87 88 71 39 31 52 67 66
68 60 49 37 26 20 19 21 24 26 27 28 29 32 36 38 40 43 43 40 40 41 41 43 44 45 45 46 46 45 44 42 42 44 46 49 52 62 80 92 87 78 77 79 83 86 86 90 94 93 91 88 83 83 86 88 88 77 47 31 49 70 73
63 52 39 28 20 18 19 23 26 28 28 28 30 34 36 37 38 41 41 41 43 44 44 46 47 45 43 44 45 45 44 45 45 45 47 49 53 63 78 88 86 82 83 86 89 91 92 96 98 95 93 90 84 84 89 88 86 81 55 32 44 70 82
57 43 30 22 17 16 19 24 28 29 29 30 32 33 35 36 37 38 39 40 42 44 47 49 48 43 40 40 43 43 43 44 45 45 47 48 52 63 78 89 90 89 89 91 92 93 96 100 102 101 101 99 93 93 95 90 86 84 64 35 38 67 90
48 34 24 18 15 16 20 26 29 29 29 32 33 33 34 35 36 38 40 41 41 43 47 49 47 43 38 36 38 41 41 42 43 43 45 47 53 63 77 88 92 90 91 91 89 90 93 97 98 98 100 100 98 100 102 96 90 88 69 38 34 64 93
38 26 20 16 15 16 19 24 29 30 31 33 35 35 36 36 38 40 42 43 44 46 50 51 47 43 39 36 35 36 37 38 40 42 44 46 50 58 68 78 82 83 83 83 82 83 86 86 85 88 93 97 98 101 103 98 92 91 74 41 31 61 93
29 22 17 14 15 18 20 23 28 30 33 36 37 36 36 36 38 40 43 47 51 53 56 56 52 47 44 41 38 36 35 36 37 39 42 44 47 53 63 73 80 82 81 82 83 84 85 83 83 88 94 98 101 103 104 99 93 93 79 45 31 58 94
23 19 16 14 15 17 19 22 25 28 33 36 36 36 35 35 35 35 35 40 46 50 52 52 52 50 48 46 44 42 40 39 39 40 42 45 49 55 64 75 85 87 85 88 91 90 89 90 91 92 95 99 102 104 106 102 96 95 82 49 31 56 94
20 17 16 15 15 15 16 19 21 24 27 29 30 31 32 33 35 34 32 32 37 42 44 42 43 46 46 45 45 45 43 43 44 45 47 50 56 64 72 83 92 93 93 96 97 94 93 94 94 93 95 99 103 104 107 104 99 97 85 52 31 55 94
19 17 17 17 16 16 16 18 20 21 23 24 25 26 27 29 33 35 32 29 32 37 40 39 39 40 40 40 42 42 43 44 45 48 52 57 63 73 85 95 101 101 102 102 98 93 93 94 93 93 96 101 104 105 106 104 99 98 88 55 33 55 93
21 20 18 17 17 17 17 19 21 22 22 23 23 24 24 26 30 33 32 31 31 34 36 37 38 39 39 40 40 40 42 44 46 50 55 61 70 83 95 104 106 106 106 104 97 94 94 93 93 95 96 100 104 103 103 102 98 98 90 58 35 57 95
21 23 21 19 18 17 18 20 22 23 23 24 25 26 27 28 30 32 33 33 33 35 36 37 39 41 42 42 43 44 46 48 52 57 63 72 84 95 101 106 107 105 104 101 96 93 93 92 94 97 96 98 102 101 102 101 97 99 91 58 36 62 99
21 23 23 21 19 18 20 22 23 24 26 26 27 30 33 35 36 37 38 39 41 42 43 43 45 47 48 50 52 56 59 63 69 75 81 88 96 101 105 106 104 100 97 95 93 92 92 91 95 97 95 97 100 101 103 101 97 99 90 56 39 69 104

ECMWFFLT1_500_rhum_114.txt.gz
RH
100 101 102 102 101 102 104 104 101 100 98 97 96 95 96 98 99 99 97 92 88 85 81 77 75 77 78 78 75 72 68 65 61 56 48 40 34 30 27 25 23 19 17 16 13 12 14 17 19 20 21 21 19 18 17 16 15 14 14 14 14 14 14
102 102 102 102 101 102 104 103 101 100 99 98 99 100 99 100 100 99 95 90 87 84 80 77 77 80 82 80 76 73 70 67 60 51 42 36 32 29 26 23 20 17 14 13 12 14 17 20 22 23 23 22 20 18 17 16 16 15 15 15 17 18 19
103 101 101 102 103 103 103 102 100 101 100 100 100 100 100 100 100 97 92 88 85 82 80 80 81 83 83 80 75 72 70 63 53 44 38 33 29 25 22 19 16 15 13 12 13 17 20 24 26 25 24 22 21 19 18 18 17 17 17 18 20 22 25
103 102 101 102 104 104 103 101 101 101 101 100 101 101 100 100 97 93 90 87 83 82 83 84 84 84 83 79 74 69 63 53 45 39 34 29 25 21 18 16 15 14 13 13 15 20 24 28 29 26 25 24 23 21 20 19 19 19 19 20 22 24 26
103 104 104 104 104 103 102 101 101 101 101 100 101 101 100 98 94 90 86 84 83 85 88 88 86 84 82 76 68 60 52 45 39 34 28 23 20 17 16 15 15 15 15 16 20 22 26 32 31 28 28 28 26 26 25 24 24 24 24 24 24 24 24
103 103 104 105 104 101 101 101 101 101 100 100 101 100 98 97 93 88 85 84 86 88 89 88 86 82 77 68 58 50 43 37 31 25 21 19 17 16 17 17 17 18 19 22 23 23 28 35 34 31 32 32 31 31 32 33 33 34 34 34 33 32 29
103 102 102 102 102 100 101 102 100 100 100 101 101 99 96 93 89 85 84 86 88 89 88 86 81 75 67 58 49 41 35 28 23 19 18 17 17 18 19 21 22 23 25 28 26 25 32 38 37 36 37 38 39 39 40 44 45 45 46 45 43 40 37
103 101 101 101 101 101 102 101 100 100 101 102 101 98 95 91 87 85 85 86 87 88 85 80 73 64 55 47 40 32 25 21 18 17 17 17 20 23 25 26 26 28 32 31 27 29 37 40 41 42 42 43 47 48 49 53 52 50 52 51 46 43 42
101 100 101 101 102 102 101 100 100 100 101 101 100 96 93 90 88 87 86 87 88 86 79 71 62 53 45 37 29 23 19 18 17 17 18 21 25 30 33 33 31 33 37 32 27 34 42 43 44 47 49 51 55 56 57 57 54 50 50 49 47 47 48
101 101 102 101 101 101 100 100 101 102 102 100 98 96 94 92 90 88 87 87 84 78 69 60 51 42 34 26 21 18 18 18 18 20 23 26 31 36 39 40 40 42 40 32 29 38 45 45 47 52 57 59 61 61 59 57 54 50 47 45 45 47 47
101 102 103 101 100 100 100 100 101 102 101 100 99 98 95 92 90 89 87 83 77 68 60 50 40 31 24 19 19 18 19 20 22 26 31 35 38 40 41 46 52 52 43 31 32 43 48 48 52 59 64 65 66 65 61 56 52 48 45 45 43 41 42
102 102 101 101 101 101 100 100 101 100 99 99 100 100 97 91 87 83 78 72 65 58 49 39 29 22 19 19 20 20 22 26 32 39 44 47 48 45 43 50 59 56 41 30 34 46 50 53 58 64 68 70 70 65 59 55 51 47 45 43 40 39 40
102 103 101 100 101 101 100 100 100 100 99 99 101 102 99 92 83 74 65 58 53 46 36 26 20 17 17 19 20 22 26 35 47 58 64 67 65 57 52 56 58 51 37 30 37 48 53 59 64 66 71 79 76 66 59 57 54 50 46 42 40 39 40
102 102 102 101 100 100 100 100 100 100 100 101 103 102 97 87 75 66 59 51 43 34 24 18 16 17 18 20 21 24 31 42 57 69 76 82 84 75 64 59 54 44 34 31 39 50 56 63 68 67 72 83 80 67 60 59 56 50 45 41 39 40 41
102 101 101 100 100 100 100 100 100 100 100 102 103 98 88 78 68 61 54 44 34 24 18 16 17 18 20 21 22 25 35 47 57 65 72 84 94 89 74 59 48 39 32 31 40 51 59 67 71 69 75 86 84 71 63 59 55 50 47 45 44 44 43
102 101 100 100 100 100 100 100 101 102 101 101 97 89 78 70 63 55 45 34 24 18 16 17 19 20 22 23 25 31 39 45 49 56 68 82 91 87 72 56 45 35 30 33 44 54 61 66 68 69 79 90 89 79 71 65 59 56 54 51 48 46 46
100 100 100 100 100 100 100 100 101 104 102 96 89 80 71 64 57 46 34 24 18 16 18 20 21 23 22 24 31 38 42 44 45 51 64 76 79 74 63 50 42 34 29 34 46 57 62 64 64 68 78 85 84 79 73 66 61 59 57 52 48 45 47
100 100 100 100 100 100 100 99 102 103 97 87 80 74 66 58 47 35 24 19 17 17 20 22 23 25 25 29 38 45 47 50 51 50 55 62 64 62 56 46 39 35 31 35 47 58 64 64 63 69 79 83 82 79 72 63 58 58 55 51 48 46 47
101 100 99 100 101 101 101 101 102 98 89 80 75 70 61 49 36 25 19 17 17 19 22 24 24 27 31 35 41 48 54 59 58 53 53 53 50 49 49 44 39 35 32 38 50 60 65 63 62 70 82 87 85 81 74 65 59 57 54 51 49 48 48
100 100 100 101 101 101 102 101 96 90 83 76 71 65 53 38 26 20 17 16 18 21 23 25 26 30 37 39 39 44 52 55 52 49 48 46 42 42 44 42 39 35 35 42 53 62 65 61 61 75 89 93 89 84 77 69 63 59 56 53 50 50 49
100 100 100 101 102 103 102 97 90 84 78 73 67 56 41 28 20 17 16 17 20 22 24 26 28 32 41 44 42 44 47 47 45 42 39 38 38 39 39 39 37 37 40 46 54 61 62 58 63 82 96 95 91 85 77 69 64 62 59 57 55 54 52
100 99 99 102 103 103 100 93 85 79 74 69 60 44 30 21 17 16 17 18 21 23 25 28 30 32 38 43 44 45 46 45 43 40 36 36 36 35 36 38 37 37 41 47 54 60 60 61 75 93 100 97 92 84 74 67 65 63 61 61 59 56 54
100 100 101 103 103 101 96 90 82 76 71 63 49 33 23 18 16 16 18 19 21 23 26 29 32 34 37 41 43 44 44 43 42 40 38 37 35 33 35 37 36 36 39 45 53 58 58 65 83 97 102 102 100 91 82 77 74 71 69 67 64 60 58
100 102 103 103 101 99 93 86 80 74 66 52 36 24 19 17 16 18 20 19 20 23 26 29 33 35 38 41 44 46 46 44 43 42 42 41 37 35 36 36 35 35 38 43 51 55 57 65 83 97 104 107 106 101 96 93 89 85 82 79 75 70 66
102 103 102 101 100 96 89 83 78 70 57 40 27 20 17 16 17 19 21 20 21 22 24 28 32 35 38 42 45 46 46 45 43 44 47 46 41 38 37 35 34 34 36 41 48 52 54 61 76 92 101 104 102 99 100 100 96 92 91 90 85 78 73
103 102 101 100 97 92 85 81 74 61 45 31 22 18 17 16 17 20 21 22 22 23 25 29 31 34 38 42 44 45 44 43 43 45 48 49 47 43 38 35 34 34 35 39 44 48 51 55 65 80 90 93 94 95 99 100 96 92 93 95 90 80 75
103 102 101 98 93 88 82 77 66 50 35 24 19 17 17 16 17 19 21 22 23 24 26 30 33 36 38 40 41 41 41 42 43 45 47 48 49 47 43 38 35 34 35 38 41 45 47 50 59 71 81 87 91 95 100 100 94 90 92 93 87 78 76
103 104 102 96 89 84 79 70 56 40 27 21 18 18 18 17 18 20 21 21 22 23 24 29 33 35 36 36 36 37 38 39 41 42 43 43 45 47 46 41 37 35 35 37 39 42 45 48 55 66 77 86 92 98 102 101 96 93 92 90 85 79 79
103 104 101 93 87 83 74 61 46 32 23 19 19 19 19 19 19 20 21 21 21 22 24 28 31 32 33 32 32 33 34 36 37 38 38 38 40 42 43 43 41 39 38 38 39 41 44 48 56 66 79 90 97 102 106 105 100 95 92 90 86 82 83
104 103 99 92 87 81 68 52 38 27 20 18 19 19 19 19 20 21 22 22 23 24 26 28 30 31 31 30 29 30 31 32 32 33 34 35 35 35 37 40 40 40 40 41 41 44 47 52 58 68 83 95 102 105 108 107 103 97 92 88 85 81 81
105 104 99 92 86 76 60 44 32 24 20 21 22 21 19 20 21 22 23 23 25 28 31 33 33 33 33 33 32 32 32 31 30 31 33 34 33 33 34 34 35 37 38 39 41 43 45 49 54 63 76 89 95 100 105 106 103 97 90 86 82 78 79
107 104 100 93 82 65 49 37 28 21 19 22 24 22 20 20 22 23 24 25 27 29 32 34 36 37 38 38 37 37 36 35 34 34 34 34 34 35 35 34 34 34 35 36 39 40 42 46 52 60 73 85 92 97 103 104 101 95 89 85 81 79 81
106 104 98 87 72 55 41 32 25 19 17 20 22 21 20 20 22 25 27 28 30 32 33 35 36 37 38 39 39 40 40 40 39 39 38 38 38 38 38 37 37 36 37 39 41 42 46 52 59 70 81 91 97 102 104 104 101 97 93 89 85 83 85
108 105 94 76 59 47 36 28 22 19 18 20 20 20 20 21 23 26 28 31 34 36 38 40 42 42 41 42 42 43 43 43 43 43 43 43 43 43 43 43 43 43 45 47 49 53 59 67 76 87 94 98 102 104 104 104 103 102 100 96 91 89 90
105 98 82 63 49 39 30 23 21 21 21 21 20 20 21 23 26 29 31 34 38 41 44 48 50 50 51 52 52 53 54 54 53 53 53 52 53 53 53 53 54 55 57 61 66 71 78 86 94 99 100 102 105 106 105 106 107 105 103 101 97 95 94
84 72 59 48 38 30 24 23 24 23 23 22 21 21 23 27 31 34 37 40 44 49 55 59 61 63 64 65 67 69 71 73 73 73 72 71 71 71 72 73 75 76 79 84 88 92 97 101 102 102 103 105 108 108 107 108 109 107 105 103 101 99 98

ECMWFFLT1_500_rhum_117.txt.gz
RH
100 100 100 100 100 98 97 98 100 100 98 93 89 88 89 91 93 94 93 92 90 88 87 88 89 90 91 93 92 91 91 90 88 84 79 75 71 66 63 60 56 51 45 41 39 36 31 28 26 24 23 22 20 19 17 16 14 12 11 10 10 9 10
100 100 101 100 100 100 99 100 101 100 97 93 91 92 94 95 95 94 93 92 90 89 90 90 90 90 91 93 93 94 95 92 87 81 75 71 67 63 60 58 55 50 42 36 32 29 26 25 25 24 22 20 17 15 13 12 11 11 10 10 10 11 12
101 100 100 100 100 100 100 100 101 101 98 96 96 98 99 98 97 97 96 92 91 93 95 94 93 92 91 92 94 95 95 91 86 80 76 71 67 63 60 56 52 45 36 30 26 25 25 24 22 20 17 15 13 12 12 11 11 11 11 13 14 15 16
100 100 100 100 100 100 100 101 101 101 100 99 99 100 100 100 99 99 95 92 95 99 100 97 94 93 95 95 95 94 91 88 84 80 75 71 68 65 59 51 43 36 32 28 25 24 23 20 17 15 13 12 12 12 13 13 13 14 16 19 21 21 22
100 100 100 100 100 100 100 100 100 101 100 100 100 100 100 100 100 97 95 96 100 101 101 98 95 96 97 96 93 89 88 86 82 77 74 71 67 60 51 43 37 34 31 27 24 21 17 14 13 12 13 14 14 14 15 14 16 21 25 26 27 27 27
100 100 100 100 100 100 100 100 100 100 100 100 100 100 101 99 98 97 98 101 102 99 97 96 96 98 98 95 91 88 85 83 79 76 72 67 60 50 42 37 34 32 28 23 19 15 13 13 13 14 15 15 15 16 17 21 28 32 31 30 30 31 30
100 100 100 100 100 100 100 101 101 100 100 100 100 101 100 99 98 98 100 102 100 97 96 97 99 100 97 94 91 87 84 81 78 74 66 58 51 44 39 35 30 26 20 16 14 12 13 14 15 16 16 16 17 19 24 34 41 38 33 32 34 32 30
100 100 100 100 100 100 100 101 101 100 100 100 101 100 99 99 99 100 101 99 97 97 99 100 99 96 95 93 90 86 84 80 75 68 59 51 46 41 36 29 23 19 15 13 13 13 15 16 16 17 17 18 20 24 37 49 46 36 34 36 35 33 32
100 100 100 100 100 100 101 101 100 100 100 101 100 99 99 100 101 101 99 97 96 98 98 97 95 94 94 93 89 86 83 77 68 60 54 49 43 36 28 21 17 14 13 14 15 15 17 17 17 18 19 21 23 31 49 56 44 34 37 39 37 36 36
100 100 100 100 100 100 100 101 100 100 100 100 100 99 100 100 101 100 99 98 99 98 96 95 94 93 92 90 87 84 78 70 62 56 51 44 35 26 20 16 14 13 15 16 17 17 18 18 18 21 24 28 33 44 56 54 40 37 41 41 40 41 42
100 100 100 100 101 101 100 100 100 100 100 100 100 100 100 100 100 100 100 99 97 95 95 95 94 91 90 88 84 77 69 63 58 52 44 34 25 19 15 14 14 15 17 18 18 19 20 19 21 27 35 41 46 56 59 47 38 41 44 43 45 47 48
100 100 100 100 101 101 100 100 100 100 100 100 100 100 100 100 100 100 100 98 96 94 94 93 91 89 86 84 79 71 65 60 53 44 33 23 18 15 13 14 16 17 18 19 20 22 21 22 26 34 49 60 60 61 56 42 38 45 47 48 51 52 54
100 101 101 100 101 101 100 100 100 101 101 100 100 100 101 100 98 96 94 93 95 98 98 97 94 89 83 79 74 69 63 55 44 32 23 17 15 14 14 17 19 19 19 19 22 24 23 27 32 39 56 70 67 58 48 39 41 48 50 54 58 57 55
101 101 101 100 101 101 100 100 100 100 100 100 100 100 100 99 96 91 88 87 89 93 97 97 94 88 81 76 70 65 57 46 32 23 18 16 15 15 17 20 20 22 25 24 23 23 24 33 43 50 59 64 60 51 42 38 45 52 56 60 62 58 56
101 101 101 101 101 100 100 100 100 100 100 100 100 100 100 97 92 89 87 86 88 91 92 89 84 80 76 70 65 58 46 33 23 18 16 16 17 19 20 20 22 28 33 34 33 31 28 31 42 55 61 59 51 44 38 39 48 56 60 61 60 58 60
101 101 101 100 100 100 100 100 100 100 100 100 100 100 99 94 90 88 88 89 94 96 92 85 79 75 70 64 58 47 34 24 18 15 15 16 19 21 20 21 27 35 39 40 43 44 42 37 39 48 54 53 47 40 36 41 51 58 62 62 60 61 64
101 100 100 100 100 100 100 100 100 100 100 100 100 100 97 93 91 90 90 94 99 97 90 84 79 74 68 60 49 35 24 19 15 13 13 17 20 21 21 25 33 41 44 44 43 44 46 47 47 48 48 46 43 39 36 41 52 62 67 66 62 62 65
100 100 100 100 100 100 100 100 100 100 100 100 100 99 97 94 92 92 95 100 100 93 87 83 78 72 66 54 39 26 20 17 15 13 13 15 18 20 23 30 36 39 42 45 44 42 44 46 48 49 47 43 40 39 39 43 53 64 67 65 61 61 65
100 101 100 100 100 100 100 100 100 100 100 100 100 100 99 96 94 95 100 101 96 90 85 80 75 70 60 43 29 21 17 16 15 15 14 16 18 18 23 32 36 34 35 40 44 45 44 42 42 44 44 40 38 39 42 48 57 64 66 64 63 63 65
100 100 100 100 100 100 100 100 100 100 100 100 102 101 100 99 98 99 101 98 93 88 84 78 73 65 50 34 23 18 17 16 16 16 17 18 18 19 24 29 31 31 34 39 44 46 43 40 40 41 41 38 36 37 42 50 59 65 67 66 63 63 67
100 100 100 100 100 100 100 100 100 100 100 102 102 101 102 103 102 101 100 96 91 88 83 78 71 58 41 27 20 17 17 18 18 18 18 18 19 22 26 27 27 30 35 40 44 46 44 40 39 40 40 38 36 36 41 50 59 64 66 64 60 60 65
100 100 100 100 100 100 100 100 100 101 101 101 101 101 103 104 103 101 99 95 91 89 84 77 66 50 33 23 18 17 19 20 21 21 20 20 21 22 23 24 27 32 36 40 44 47 47 45 41 39 39 38 36 37 41 49 59 64 63 60 57 59 64
100 100 100 100 100 100 100 101 101 102 101 101 102 104 105 105 104 103 101 97 93 90 84 74 59 42 27 20 17 18 20 21 22 22 23 24 23 21 21 24 28 31 34 38 42 45 48 50 47 42 40 39 37 37 41 48 57 63 63 59 56 59 67
100 100 100 100 100 101 102 102 100 101 102 102 104 105 104 103 103 104 103 99 94 90 82 69 52 35 24 18 18 20 21 23 23 24 25 25 23 21 22 26 30 32 34 36 38 39 43 48 50 47 44 41 38 37 40 48 56 61 61 58 57 64 73
100 100 100 100 101 101 102 102 101 102 104 105 107 106 104 102 101 103 105 103 97 89 77 60 44 31 22 18 18 21 23 24 25 26 26 25 23 23 24 27 30 33 35 36 37 37 39 43 47 49 48 45 42 39 41 47 54 57 58 55 57 66 74
100 100 100 101 102 102 101 102 104 104 104 104 105 105 105 104 102 102 106 107 99 85 68 51 37 27 20 18 19 22 24 25 26 27 27 27 26 25 25 27 30 32 34 37 38 38 38 39 42 46 48 47 47 45 43 47 53 56 55 54 56 65 72
100 101 102 101 101 102 103 104 105 106 105 104 103 104 105 105 103 104 107 104 90 72 57 43 32 24 20 20 22 24 25 25 26 27 28 29 29 27 26 27 29 30 33 37 40 39 39 38 39 42 45 47 49 49 47 48 52 56 55 55 59 67 75
101 102 102 101 100 102 103 103 105 106 105 104 102 102 103 103 104 105 102 88 70 56 46 36 27 24 23 22 23 26 27 27 27 27 28 30 31 30 29 29 29 30 32 36 39 39 39 38 37 38 41 44 47 49 50 50 52 55 56 57 60 68 77
99 101 102 100 100 102 102 102 104 106 105 104 103 104 106 106 102 93 80 63 51 43 35 29 26 26 26 25 25 27 29 29 29 29 30 31 32 32 32 32 32 32 33 35 37 38 39 40 38 37 38 40 42 45 47 49 52 54 55 55 58 64 74
100 103 102 100 100 102 103 102 103 103 103 103 104 105 101 90 75 61 50 43 38 33 27 25 26 27 26 25 25 26 29 30 31 31 32 33 34 34 35 36 35 35 34 34 34 36 39 40 40 39 38 38 39 41 43 45 48 50 51 52 55 59 67
105 104 102 100 100 100 102 104 104 103 102 101 97 88 72 53 40 34 33 31 29 27 26 26 27 26 26 25 25 26 29 31 32 33 35 37 38 39 40 40 40 39 38 36 35 35 36 38 40 41 41 40 39 39 41 43 45 46 47 49 51 55 62
107 106 104 103 101 99 98 96 93 91 88 81 69 54 40 30 28 28 28 28 27 26 26 26 26 26 26 26 27 29 31 33 35 36 38 41 44 46 47 47 46 46 46 44 41 38 37 37 38 39 41 42 42 42 43 45 47 49 51 52 55 60 68
107 107 105 104 102 98 91 81 70 59 49 40 30 24 22 23 25 28 30 31 30 27 25 25 25 25 26 28 30 31 32 35 37 39 42 47 50 53 55 56 56 55 55 55 53 49 46 42 40 39 39 40 41 42 43 45 48 51 53 55 61 70 81
108 107 103 99 93 84 72 60 47 34 24 18 16 18 20 22 23 27 32 32 29 26 26 25 25 25 27 29 31 33 35 37 39 41 45 51 56 60 63 66 66 64 65 66 64 61 58 55 52 49 46 44 43 44 45 47 50 54 58 64 72 82 92
103 101 96 89 78 63 48 35 25 18 16 17 19 21 22 22 23 27 30 30 28 27 27 27 27 28 29 31 33 36 37 40 43 46 51 57 63 68 71 73 74 73 74 75 75 73 71 69 65 63 61 59 58 57 58 61 65 69 75 82 86 89 91
81 78 73 65 53 39 28 20 17 16 19 21 22 22 22 22 24 25 26 28 29 28 28 30 31 32 33 35 38 40 43 46 51 57 62 68 73 78 80 81 82 82 83 85 86 86 85 83 80 79 78 76 76 77 78 81 85 88 93 96 95 91 90

ECMWFFLT1_500_rhum_123.txt.gz
RH
59 62 67 71 72 73 72 74 83 93 101 105 105 103 101 101 101 101 101 103 104 104 103 101 101 101 100 99 98 97 94 90 87 85 82 79 77 77 78 80 80 78 78 77 74 71 69 65 61 58 58 58 58 59 59 59 60 61 61 59 56 54 52
67 71 74 76 76 75 75 80 89 98 103 105 104 102 102 102 102 102 103 103 104 103 101 100 101 101 101 101 100 100 98 96 95 93 90 88 87 86 86 87 87 85 81 79 77 74 70 67 63 60 60 61 61 62 64 66 67 67 65 61 57 54 50
75 78 80 80 79 79 82 88 96 100 100 101 101 102 103 103 103 103 102 102 101 101 100 101 101 100 101 101 100 100 99 99 99 99 98 98 97 96 96 96 96 93 87 83 80 75 72 70 67 64 64 64 64 65 68 71 72 70 67 63 57 52 48
81 83 84 84 86 89 92 96 99 100 98 99 100 101 102 102 101 101 101 100 100 101 100 100 101 100 101 101 100 100 100 100 100 100 101 102 101 101 102 102 101 96 90 85 81 76 72 70 69 68 67 68 68 70 71 73 73 70 65 60 54 49 45
85 87 89 91 95 99 100 101 101 100 99 99 100 101 101 100 100 100 101 100 100 101 101 100 101 101 101 100 100 100 100 100 100 100 101 101 100 102 103 102 99 95 89 83 80 76 73 71 71 71 71 72 74 76 76 75 72 68 63 56 51 47 45
87 91 95 98 101 103 102 102 102 101 101 100 100 101 101 101 100 100 100 101 101 102 101 99 99 99 98 98 98 100 102 101 100 101 101 101 100 101 102 100 97 93 88 82 79 77 74 72 72 74 76 77 79 79 78 75 71 65 59 54 50 48 47
89 94 100 102 104 103 101 101 101 100 101 101 100 100 101 100 100 101 102 102 101 99 97 95 95 94 94 96 99 102 103 101 101 101 100 100 100 100 101 100 96 92 88 83 80 77 74 73 75 76 78 80 82 81 78 74 68 61 57 55 52 49 48
94 99 102 104 104 102 101 101 101 100 100 100 100 100 100 100 101 101 102 101 98 96 95 93 93 93 95 98 101 101 101 100 100 100 100 100 101 100 101 100 97 93 89 85 81 79 78 79 79 80 81 84 86 84 80 76 67 59 56 54 52 50 49
98 100 102 104 103 101 101 101 100 100 100 100 100 101 100 100 100 100 99 97 95 94 94 95 95 96 98 100 100 100 100 100 100 100 100 100 100 101 101 100 98 94 91 88 85 84 85 85 84 85 88 89 87 85 82 77 68 60 55 54 52 51 50
98 100 102 103 102 101 100 101 100 100 100 100 101 101 101 100 99 98 96 96 95 96 97 98 99 99 100 101 101 100 100 100 101 100 100 100 100 101 101 99 97 95 94 93 89 89 90 89 88 91 92 89 87 86 83 76 68 61 58 56 54 51 48
98 102 103 101 101 101 100 100 100 100 100 100 101 101 101 100 99 98 98 98 98 99 100 100 101 101 101 101 101 101 101 101 101 100 100 101 101 101 100 99 98 96 96 94 92 92 93 92 92 94 92 88 87 86 81 74 70 66 63 60 54 50 46
102 104 102 100 101 101 100 100 101 100 100 100 101 101 100 100 100 100 100 100 100 101 102 103 103 102 101 101 101 101 101 101 101 101 101 101 102 101 99 99 98 96 95 94 93 93 94 96 96 93 90 89 88 85 80 75 73 70 65 60 54 50 45
102 101 100 101 101 101 100 100 100 100 100 100 101 101 99 99 100 101 101 101 102 103 104 106 105 103 102 102 101 101 102 101 101 101 101 101 100 98 96 98 98 97 97 98 98 96 95 97 96 92 91 93 91 86 81 77 75 71 65 60 55 50 42
101 100 101 101 100 100 100 100 101 101 101 100 101 101 99 99 101 102 102 102 103 105 106 107 105 103 102 102 102 102 101 101 101 101 101 101 99 96 96 97 98 98 100 101 100 97 95 96 96 93 94 95 91 85 81 78 74 70 66 62 57 49 38
101 100 100 100 100 101 101 102 103 102 101 100 100 100 101 99 98 100 102 102 103 105 106 106 105 104 103 103 103 102 101 101 101 101 101 100 98 97 97 95 97 101 102 101 99 97 96 96 97 96 94 92 88 83 80 79 75 70 67 63 56 45 31
100 100 101 101 101 101 100 101 102 100 100 101 100 101 102 96 90 93 98 101 104 106 106 106 106 106 105 103 102 101 100 101 101 101 101 99 99 100 97 95 97 101 103 103 102 99 95 92 91 90 87 85 84 84 84 82 76 72 69 63 52 38 25
102 103 101 98 96 95 96 98 101 100 101 102 101 103 103 96 88 89 95 101 104 105 106 106 106 106 105 103 101 101 101 101 102 101 100 98 98 98 95 94 99 103 104 104 103 100 95 92 88 85 83 83 84 85 86 82 77 73 67 55 42 31 20
103 99 94 93 94 97 99 101 102 102 104 104 105 106 104 99 95 94 97 100 102 102 103 102 102 105 105 102 101 101 101 102 103 101 98 98 99 98 95 96 101 106 106 104 103 102 97 92 90 88 88 89 88 88 86 79 72 65 54 42 33 24 18
95 92 92 97 100 100 100 101 102 103 104 104 103 104 103 101 100 97 97 99 98 96 95 96 100 104 105 102 102 102 101 102 102 100 99 99 99 98 98 101 104 106 106 103 104 106 102 97 97 97 94 93 94 94 86 71 56 44 36 32 28 21 17
91 90 92 94 95 97 99 102 103 103 102 102 101 101 101 101 100 98 99 100 97 93 91 93 99 104 105 105 105 103 101 101 100 100 100 100 98 97 100 104 104 105 107 104 102 104 106 104 104 104 102 98 93 83 68 53 41 33 28 27 23 19 19
81 80 82 86 92 98 101 102 101 100 100 100 100 100 101 101 100 100 101 100 98 95 95 97 100 103 105 105 105 103 103 102 101 102 101 99 97 98 102 105 103 102 105 104 102 104 106 105 106 109 105 91 69 51 42 40 40 37 31 26 22 19 21
71 77 86 95 101 102 102 101 101 101 101 101 101 101 101 102 101 99 98 97 96 97 100 103 104 103 103 103 103 102 102 102 101 103 101 98 98 100 103 103 99 95 95 97 97 98 98 100 104 99 80 57 39 32 36 40 40 37 32 26 23 22 23
82 91 99 105 104 102 102 102 101 101 100 100 101 101 101 101 100 99 97 96 96 99 102 105 104 101 101 103 102 101 101 101 101 102 101 100 100 102 101 98 93 89 88 88 86 85 84 82 76 59 40 30 30 34 37 39 37 34 31 29 28 28 27
94 99 104 105 104 104 103 102 102 104 103 102 102 102 102 101 100 100 99 98 98 100 101 103 103 102 102 103 103 103 103 103 103 102 102 101 102 103 103 100 97 94 90 82 75 68 59 49 37 27 24 28 33 35 36 36 34 33 34 34 33 31 30
98 100 101 102 101 102 103 102 104 106 105 104 105 104 102 101 101 101 101 100 101 100 99 99 100 102 104 106 107 107 107 106 105 103 102 102 103 102 101 101 102 102 95 80 61 45 32 23 21 22 26 30 33 35 35 34 33 35 37 37 35 33 32
96 96 96 97 97 99 102 104 106 106 105 104 105 104 104 103 103 103 103 101 101 100 98 95 92 92 93 96 100 104 106 107 106 105 103 102 102 103 104 105 104 97 83 61 40 25 18 18 21 25 27 30 33 34 34 35 37 38 38 38 36 35 34
96 96 97 97 98 100 102 104 105 105 104 103 103 104 106 106 106 105 100 94 91 92 92 90 87 84 82 85 89 95 98 99 101 104 105 103 102 101 99 92 80 64 47 32 23 20 20 20 21 23 25 29 31 32 34 39 41 39 40 40 38 36 36
98 100 99 98 99 100 101 102 104 104 102 99 98 98 99 100 101 100 96 92 91 90 86 83 83 83 83 83 82 82 81 79 78 79 80 78 74 67 59 50 39 30 24 22 22 24 24 23 22 22 23 26 27 29 33 39 41 41 42 42 39 38 40
98 98 96 95 95 96 96 97 99 99 96 93 92 91 92 95 97 98 98 98 97 91 83 78 77 77 76 73 67 61 56 52 47 44 41 37 34 31 28 26 24 22 23 24 26 26 25 24 23 22 22 23 24 26 31 36 38 40 42 43 41 42 44
93 91 89 88 89 90 90 91 92 93 93 92 91 89 89 90 92 94 95 95 91 83 75 70 65 60 55 49 43 37 32 27 25 22 21 20 21 22 24 25 26 27 27 27 27 26 25 24 23 23 23 24 24 25 28 32 35 38 40 41 42 44 46
90 88 85 84 83 82 82 83 84 86 90 93 94 92 89 87 85 83 81 78 72 64 56 50 43 37 32 28 24 22 20 20 20 20 21 22 24 25 26 27 27 29 29 29 28 27 25 24 24 24 25 25 24 25 28 31 34 36 38 41 45 47 48
83 81 79 77 76 73 71 72 74 78 84 88 90 89 84 77 71 64 57 51 45 40 35 30 26 22 20 19 19 19 20 21 23 24 25 26 27 27 28 29 30 30 31 30 30 29 28 26 25 25 26 27 26 27 29 32 34 37 39 43 48 50 51
67 66 69 73 75 73 72 73 75 76 75 73 69 63 57 52 46 41 35 30 26 22 19 18 18 20 23 27 31 34 38 40 42 44 44 44 43 42 39 37 36 36 38 38 38 37 35 32 28 27 27 28 28 28 30 33 35 38 42 46 50 54 55
79 76 74 74 72 69 64 61 59 56 51 47 44 39 35 31 26 22 20 20 21 26 31 38 45 52 58 63 67 70 74 79 82 85 86 85 83 80 75 69 64 59 57 54 52 51 49 44 38 33 30 30 31 31 32 34 37 40 44 50 55 59 62
81 78 70 61 53 47 44 42 41 39 35 31 27 22 20 20 22 27 35 45 55 65 73 79 85 88 89 89 88 87 87 89 92 97 101 104 105 104 102 100 96 91 86 80 73 67 63 60 54 47 39 35 34 34 34 36 39 42 47 54 61 66 68
56 56 52 45 39 36 35 33 29 25 22 21 23 29 36 45 54 62 71 79 87 92 93 93 94 94 93 92 90 88 87 85 85 87 91 96 101 105 108 110 108 104 102 100 95 88 81 74 69 63 55 48 42 39 39 39 41 45 51 58 66 71 74

ECMWFFLT1_500_rhum_126.txt.gz
RH
102 99 95 92 90 89 90 91 92 93 93 94 94 94 92 88 87 86 85 88 90 93 97 101 103 103 101 101 101 100 100 101 101 101 101 99 97 95 94 94 90 83 78 75 74 73 74 73 69 67 68 69 70 71 74 76 76 76 75 73 73 74 74
102 102 99 94 91 90 91 93 95 96 98 98 98 99 98 95 93 92 91 92 95 98 102 103 103 102 100 100 102 101 100 101 100 100 101 100 99 98 97 97 94 89 84 80 79 79 77 73 70 70 71 71 71 71 73 73 73 73 72 73 76 77 76
101 102 100 95 92 91 92 95 97 99 100 100 100 101 101 100 99 97 96 98 100 102 104 103 102 101 101 101 101 101 100 101 100 100 101 100 100 100 100 99 97 94 89 85 83 82 80 77 74 72 72 71 71 71 72 72 72 72 72 74 76 75 73
101 101 101 99 97 96 97 98 99 100 100 101 102 103 103 103 102 101 100 101 101 102 103 103 101 101 102 101 101 100 100 100 100 100 100 100 100 100 100 99 100 99 95 90 87 84 83 82 79 75 73 73 74 74 74 75 75 76 77 77 75 72 68
101 100 101 101 100 101 101 100 100 101 101 101 102 102 102 102 103 102 102 103 102 101 101 102 101 101 101 101 100 100 100 100 100 101 101 100 100 100 100 101 102 101 97 93 90 88 87 85 82 80 79 79 79 79 79 79 79 79 80 78 75 71 67
101 100 101 101 100 101 101 100 101 101 101 101 101 102 103 103 103 102 102 101 101 100 101 101 100 100 100 100 100 100 100 100 100 100 100 100 100 102 103 103 101 99 98 97 95 94 91 89 87 86 85 84 85 84 82 81 82 83 82 79 77 75 73
102 100 101 101 101 101 101 100 101 101 101 101 100 102 103 103 101 101 100 100 101 100 101 101 100 100 101 100 100 101 101 101 102 103 103 102 102 102 101 99 98 100 102 102 100 96 93 91 91 88 86 86 87 85 83 84 86 84 82 80 80 78 76
103 101 101 101 100 101 101 100 100 101 101 101 101 102 103 101 100 101 100 101 101 101 101 100 100 101 102 102 103 104 104 104 105 105 102 98 97 97 97 98 100 103 104 102 99 95 92 90 88 86 85 87 87 87 88 90 87 82 82 83 81 78 76
102 100 101 101 100 100 101 100 101 101 101 101 101 101 101 100 100 101 101 101 101 101 100 99 100 100 102 103 103 104 105 104 103 100 96 95 97 99 101 101 103 103 102 101 98 93 90 88 84 84 85 88 91 92 92 91 87 83 83 82 78 77 80
101 100 100 100 100 100 100 101 101 101 100 100 101 101 101 101 101 101 101 101 100 100 99 100 101 101 101 102 101 100 100 98 97 96 96 99 101 102 102 101 102 102 100 99 95 91 89 87 83 85 89 93 95 95 93 92 90 86 82 80 78 78 81
101 101 101 100 101 101 100 101 100 100 101 101 100 100 100 100 101 100 101 100 99 100 101 101 101 101 101 100 97 96 96 96 97 98 100 101 101 100 101 101 101 100 98 97 94 92 90 86 84 89 94 96 96 97 97 96 91 85 83 83 80 76 77
102 104 103 101 101 102 101 100 100 100 100 100 100 101 101 100 101 100 100 100 99 99 100 100 101 101 99 98 96 97 99 100 101 101 100 100 101 101 101 101 100 98 96 95 94 92 89 88 90 95 97 97 99 100 98 95 91 88 88 86 81 75 75
103 104 103 100 100 101 100 100 101 100 100 101 100 100 100 101 101 99 98 98 98 99 100 101 101 99 97 97 100 101 101 101 102 101 100 100 102 101 100 99 98 96 95 94 93 92 91 93 95 95 96 99 101 99 95 93 93 94 92 88 82 78 77
102 101 101 101 101 101 100 100 100 100 100 100 100 101 101 100 99 98 98 98 100 101 101 100 97 96 96 99 101 101 101 101 101 101 101 101 101 98 97 96 95 95 96 95 95 93 92 95 98 97 98 101 100 97 95 95 96 98 95 88 83 80 81
101 101 100 101 100 100 101 100 101 101 102 101 100 100 100 99 98 98 99 101 102 101 99 98 98 98 100 101 101 100 101 101 101 101 101 101 100 97 96 95 95 98 99 97 97 97 97 100 101 99 97 98 98 99 99 100 101 98 92 86 84 84 83
101 101 100 101 102 102 102 102 102 103 103 103 101 100 101 101 100 99 98 100 101 101 100 101 102 101 101 101 101 100 101 101 101 101 101 100 100 99 98 97 98 101 103 102 101 101 101 103 103 100 98 98 100 100 101 101 97 92 91 91 88 84 82
101 102 102 103 103 102 100 99 100 102 103 104 102 100 101 100 100 99 98 99 101 103 103 104 103 102 101 101 101 100 101 101 101 101 101 100 101 101 98 97 100 103 104 105 106 104 100 98 97 99 99 99 100 101 102 100 93 92 96 94 85 79 79
103 104 103 101 98 94 92 92 95 98 101 103 103 102 102 101 101 101 100 99 101 102 103 104 104 105 105 104 103 102 101 101 101 101 101 100 101 99 94 94 99 103 104 105 106 103 98 93 91 92 94 96 98 102 104 101 96 99 101 93 84 82 83
101 98 94 90 87 87 89 94 99 103 102 101 99 98 96 94 92 92 93 94 96 99 101 102 103 106 107 106 103 102 102 101 102 101 100 100 98 93 90 94 101 103 101 101 101 98 96 93 91 91 93 95 99 103 105 101 95 95 95 90 86 85 83
86 84 83 85 90 96 99 101 100 96 90 86 84 85 87 88 89 91 94 97 98 99 100 101 102 104 105 104 102 102 102 101 102 102 100 97 94 90 92 99 103 100 97 96 95 94 95 95 95 97 98 99 101 103 105 102 94 88 85 83 80 79 76
82 86 91 97 101 100 95 90 85 82 80 80 83 89 94 97 98 99 99 99 99 99 100 101 103 104 105 105 104 104 103 101 101 103 101 96 92 94 98 102 101 99 99 98 96 95 96 96 99 103 102 100 100 100 101 102 98 92 86 79 74 72 69
96 99 100 99 96 91 87 86 86 87 90 92 94 98 102 104 104 103 102 100 99 100 101 102 103 104 105 106 105 104 105 104 102 103 102 97 95 97 100 102 103 101 101 100 99 99 100 100 101 105 104 103 102 102 102 101 98 92 85 78 73 71 67
102 100 97 95 94 94 96 97 97 98 100 102 103 103 104 106 106 105 105 103 101 101 102 103 103 102 103 104 103 101 103 105 104 102 102 100 100 100 100 101 103 102 100 101 103 103 103 103 104 106 107 106 105 105 105 102 95 89 84 81 79 75 65
98 96 96 98 101 103 104 103 103 103 103 103 103 103 103 105 106 105 105 105 104 103 102 102 103 103 103 103 103 102 102 104 104 103 102 102 101 101 101 101 101 98 96 97 98 100 102 104 105 107 107 105 104 105 106 104 100 97 95 90 80 65 45
96 97 98 100 103 104 104 103 102 101 102 102 102 102 104 105 105 104 104 104 104 104 104 103 104 106 106 107 107 106 106 106 105 103 103 103 103 103 103 103 102 99 95 90 87 86 88 90 94 100 105 106 106 106 106 107 109 106 95 77 56 38 25
99 99 99 99 99 99 99 100 100 99 98 97 96 97 99 100 100 100 100 99 98 100 101 102 102 102 103 104 105 107 108 108 107 105 103 104 104 103 103 103 103 102 98 92 86 83 80 81 83 87 90 91 90 90 90 91 90 80 63 44 30 23 21
101 99 97 95 94 93 93 93 92 90 89 88 89 91 92 93 93 93 92 91 91 93 96 98 99 100 100 100 101 103 105 106 107 106 104 104 105 104 104 104 106 106 102 95 91 88 84 79 74 68 63 58 54 52 51 50 48 41 32 28 26 23 23
97 94 90 86 85 84 85 86 87 87 85 84 83 81 79 78 77 76 74 74 77 78 78 80 83 88 93 96 98 99 100 102 104 105 104 104 105 106 107 105 103 100 94 88 83 78 72 63 54 45 37 31 27 24 24 25 26 27 27 29 28 25 25
90 87 83 82 82 82 81 80 77 75 71 68 64 61 60 59 58 58 60 63 65 65 65 68 73 79 85 91 93 94 93 93 93 92 91 89 88 88 87 84 78 72 66 60 56 51 44 38 32 26 22 20 18 19 20 23 25 27 30 31 30 28 27
87 85 82 79 75 69 61 55 51 52 55 56 56 55 53 50 47 47 49 52 54 55 57 60 63 66 68 70 71 71 70 68 66 64 61 58 56 53 50 48 44 40 36 33 30 27 26 24 23 21 21 21 21 22 23 25 27 29 30 31 30 30 30
75 67 59 53 46 41 38 37 38 41 45 48 50 51 49 45 41 39 38 39 41 44 46 47 47 47 47 46 45 43 42 41 39 37 34 32 30 28 27 26 25 25 25 25 23 23 23 24 24 25 26 26 26 27 27 27 28 29 30 31 31 31 31
50 43 38 35 34 34 35 36 38 39 41 42 42 41 40 38 38 38 37 36 34 32 31 31 30 29 28 27 26 25 24 24 23 23 23 24 24 24 25 25 26 28 30 32 32 33 34 36 37 38 38 38 37 36 34 33 32 32 32 33 33 31 32
35 35 38 40 40 39 38 39 39 40 40 38 37 35 35 35 35 33 29 26 23 23 23 25 27 29 32 35 39 42 46 49 52 55 56 57 59 61 64 66 67 68 69 69 70 70 70 71 71 70 69 68 64 60 55 50 45 42 40 37 36 34 33
57 51 48 46 47 48 47 44 40 38 37 36 35 33 31 28 24 24 26 30 35 42 49 55 59 62 64 66 70 74 79 84 90 95 98 100 99 99 99 100 99 99 99 99 99 99 98 98 98 97 96 95 92 88 83 77 69 62 55 49 44 40 36
85 83 76 67 61 57 52 46 42 40 38 34 30 26 26 28 33 41 51 60 66 69 72 76 79 80 80 78 76 75 75 76 80 86 92 97 102 105 107 108 107 106 105 104 102 102 102 102 102 101 101 101 102 101 100 97 92 85 75 66 58 51 44
77 85 86 79 67 58 51 46 41 36 30 28 29 34 43 52 60 66 71 75 76 74 70 65 62 59 56 53 50 47 46 45 45 46 49 54 60 66 73 80 85 90 95 98 100 101 102 103 103 103 103 103 102 101 101 101 101 98 94 86 76 66 57

ECMWFFLT1_500_rhum_132.txt.gz
RH
87 85 81 76 73 75 84 95 102 103 104 106 105 103 103 103 102 99 96 98 101 102 103 103 103 102 100 100 101 100 100 100 100 100 100 100 100 100 100 100 101 97 89 86 85 84 85 87 90 91 91 91 90 88 85 82 79 77 74 72 72 74 75
96 93 88 83 81 83 90 98 103 104 105 106 105 104 102 101 101 100 98 100 102 102 102 102 102 102 100 100 101 100 100 100 100 100 100 100 100 100 100 100 101 101 96 90 89 89 89 88 88 88 87 89 89 87 84 79 75 73 72 71 72 73 76
102 100 97 94 93 93 96 101 103 103 103 104 104 104 104 104 104 103 101 102 102 101 102 102 102 102 100 100 102 101 100 100 100 101 100 100 100 100 101 100 100 102 99 95 94 93 91 89 88 87 85 85 86 84 80 76 74 74 73 74 75 77 80
104 103 103 102 102 101 101 101 102 103 103 103 103 104 104 104 105 105 103 102 101 100 101 102 101 101 100 100 102 101 100 101 100 101 101 101 101 100 100 100 100 101 101 100 99 95 92 91 90 88 84 82 83 82 79 79 78 78 78 79 81 83 84
101 102 101 101 101 101 101 101 101 102 101 101 101 102 102 101 104 105 103 102 101 100 102 102 100 100 100 101 101 100 100 101 100 101 101 101 101 100 100 100 100 101 102 101 101 99 95 93 91 88 84 82 83 82 81 82 82 83 84 85 85 87 90
100 100 100 100 100 100 100 100 100 101 101 100 100 101 101 101 102 104 102 101 102 102 103 102 100 100 100 100 100 100 100 101 100 101 100 100 100 100 100 101 100 101 101 100 101 101 98 94 90 88 85 83 84 84 84 84 85 85 87 89 91 95 98
100 100 100 100 100 100 100 100 100 100 100 100 100 100 101 100 99 98 97 97 99 102 102 102 102 101 101 101 101 101 101 100 100 100 100 100 100 100 100 101 100 100 100 100 101 101 99 97 94 92 90 88 87 87 86 86 88 90 94 98 101 102 103
100 99 99 99 99 99 99 100 99 100 100 100 100 101 99 95 91 89 89 91 96 100 102 103 102 101 101 102 101 100 100 100 100 101 100 101 101 100 101 101 100 100 101 100 101 101 100 100 98 96 95 92 91 90 90 91 96 99 101 102 103 103 102
101 100 100 100 101 100 100 100 100 100 100 99 98 96 90 86 84 84 86 90 94 98 101 102 102 101 101 101 101 101 102 102 103 103 103 103 102 102 103 102 100 101 101 100 101 101 100 101 100 98 97 96 95 96 98 99 101 101 100 102 103 102 100
98 97 95 93 92 92 93 93 94 94 94 93 90 86 83 82 83 85 88 91 95 98 101 103 103 102 102 102 102 102 101 101 102 103 103 104 103 103 103 102 101 101 101 101 101 101 100 100 100 98 99 100 99 100 102 102 101 100 101 103 103 101 99
88 87 86 85 85 86 88 90 91 91 90 89 86 85 84 86 87 90 92 93 95 96 98 99 100 100 99 99 98 98 98 99 100 101 102 104 105 105 103 102 103 101 101 101 101 100 100 100 99 99 100 100 100 101 102 101 101 101 101 102 102 100 99
79 79 80 81 82 83 83 84 84 83 83 83 83 85 86 87 89 91 93 94 95 95 95 95 96 96 96 96 97 98 99 100 101 102 104 105 105 104 101 101 101 100 100 100 100 100 100 99 100 100 100 100 100 100 100 100 100 100 100 101 101 100 99
69 68 68 68 69 69 69 69 69 70 72 73 76 80 83 85 86 88 89 92 94 96 97 98 99 100 100 100 101 102 102 102 103 103 103 103 102 101 100 100 100 100 100 100 100 100 99 99 100 100 100 100 100 100 99 99 100 100 100 101 101 100 100
51 52 52 52 53 53 54 55 56 59 62 65 70 75 80 83 86 89 91 93 97 100 101 102 103 103 102 102 102 102 101 101 101 101 100 100 100 100 100 100 100 100 100 100 100 100 99 100 100 100 100 100 100 100 100 100 100 100 100 101 100 99 97
35 35 35 35 36 37 38 40 44 51 58 67 75 82 87 90 94 98 99 100 101 102 102 101 102 102 101 101 101 100 100 100 100 100 100 100 100 100 100 100 100 100 100 100 100 100 100 100 100 100 101 100 100 101 100 100 101 101 100 99 97 96 97
34 32 32 32 32 33 34 35 40 50 65 80 92 97 98 99 101 101 101 101 101 101 100 99 100 100 100 100 100 100 100 100 100 100 100 100 100 100 100 100 100 100 100 100 100 100 100 100 100 100 100 101 101 100 100 101 101 98 96 96 97 98 100
43 41 40 39 39 39 41 43 48 58 74 92 102 103 101 101 100 100 100 100 100 100 100 100 100 100 100 100 100 100 100 100 100 100 100 100 100 100 100 100 100 100 100 100 100 100 101 100 101 101 101 101 101 101 100 100 97 95 96 98 98 99 99
49 50 50 52 54 57 60 65 73 81 88 97 102 103 102 101 100 100 100 100 100 100 100 100 100 100 100 100 100 100 100 100 100 100 100 100 100 100 100 100 100 101 101 100 101 103 103 100 100 101 101 102 102 102 101 101 99 99 101 102 101 100 102
56 60 65 70 75 80 85 91 98 101 100 100 101 101 100 100 100 100 100 101 101 101 101 101 101 101 101 101 101 101 101 101 100 100 100 100 101 100 98 98 101 103 103 103 104 105 103 100 98 98 100 102 104 103 101 102 103 104 104 103 103 103 104
64 69 76 82 88 93 98 102 103 103 102 102 102 103 103 102 102 102 102 101 100 100 100 102 102 102 102 102 102 102 103 102 102 103 103 102 102 100 98 98 98 98 100 101 101 101 101 101 100 98 96 98 102 104 103 102 104 107 108 107 105 104 103
73 75 79 83 86 91 96 100 100 101 102 102 101 102 103 103 103 102 100 98 98 98 99 100 101 102 102 104 104 104 105 103 102 104 106 104 103 102 102 102 101 99 101 102 101 100 101 102 103 102 99 97 99 102 104 104 104 105 106 106 106 104 103
83 85 86 88 89 91 94 97 98 98 100 101 101 102 102 101 102 102 100 99 100 101 101 102 103 104 105 106 105 105 105 103 100 102 104 103 102 102 103 103 102 102 103 104 103 103 103 102 103 105 104 102 100 101 103 105 105 105 105 105 105 104 103
73 72 73 77 83 85 86 88 91 93 95 97 98 100 101 101 101 99 98 98 99 101 103 103 104 105 105 105 105 104 104 103 101 102 102 102 102 102 101 101 101 99 101 103 101 100 98 98 99 102 103 103 101 101 103 104 102 101 100 100 101 103 104
38 37 37 41 48 52 52 54 61 71 81 90 95 97 98 99 98 97 97 97 96 98 101 103 104 105 105 104 103 103 103 102 102 102 101 101 102 102 102 102 100 95 95 98 99 97 96 96 97 99 102 103 103 103 104 102 97 92 89 88 88 91 94
26 25 24 23 25 26 26 25 29 38 50 65 78 88 95 99 100 98 97 96 96 98 101 103 104 106 106 105 105 105 104 104 104 103 102 101 101 101 101 101 99 94 90 89 90 93 95 97 100 102 104 105 105 106 106 104 101 96 94 93 91 89 89
28 27 25 23 22 21 20 20 21 23 27 33 42 54 70 84 93 97 98 99 100 101 103 104 103 102 100 100 100 99 98 98 98 97 96 96 95 95 96 95 94 91 87 82 79 79 82 87 93 100 105 108 108 107 105 103 102 101 102 102 100 96 94
29 27 25 23 22 20 19 18 18 19 21 23 24 28 37 49 62 73 84 94 101 104 105 104 101 97 93 91 89 88 87 86 85 83 82 82 81 81 81 80 79 76 72 68 64 60 58 59 64 71 81 91 100 105 105 103 102 102 101 101 102 100 95
29 27 24 23 20 18 18 17 17 20 21 20 21 22 22 26 35 43 53 66 77 82 82 80 77 74 73 71 68 66 63 60 57 55 53 53 54 55 57 60 61 61 59 57 54 52 48 45 44 46 50 59 71 82 92 99 103 105 103 101 102 101 97
28 25 24 21 19 18 17 17 22 29 32 31 30 25 21 29 38 37 34 40 49 52 51 49 47 46 43 42 40 39 37 36 36 37 38 40 43 46 51 56 60 63 63 62 59 56 53 51 49 47 45 45 48 54 63 75 86 95 100 103 104 104 101
26 24 22 20 18 17 18 23 30 37 41 43 41 34 35 47 51 39 30 36 45 47 46 45 45 44 42 40 39 38 37 37 36 37 38 41 44 47 51 55 59 62 63 63 60 57 54 52 51 49 47 46 45 46 48 53 60 68 77 84 90 94 97
25 23 20 18 18 20 25 33 40 44 48 51 49 49 58 66 58 43 37 41 45 45 45 44 45 45 44 43 43 43 42 43 43 42 42 43 44 46 48 50 53 55 55 55 53 50 48 46 45 44 43 41 40 40 40 41 43 46 49 53 58 65 72
24 22 20 21 24 30 38 45 49 51 55 56 55 59 68 72 64 55 54 53 50 48 48 47 47 46 45 44 44 43 42 43 43 44 43 42 42 41 39 38 39 39 39 39 39 38 37 36 35 34 34 33 32 32 31 30 30 29 29 30 31 34 38
22 21 25 33 42 47 50 53 54 55 57 58 60 62 65 64 60 56 54 52 50 48 46 45 45 44 43 42 42 41 41 41 41 42 42 43 43 44 46 47 47 46 46 47 49 52 55 58 60 60 60 59 58 56 54 52 49 46 43 40 37 35 33
27 30 39 50 57 56 54 53 53 53 52 50 50 52 52 53 55 55 54 53 54 54 53 53 52 51 50 50 50 49 50 51 51 52 52 53 55 56 59 63 66 66 65 64 65 68 72 77 81 85 88 90 91 92 92 90 89 87 86 82 78 74 70
38 48 56 59 54 48 43 42 41 42 44 48 54 62 68 71 71 70 67 63 60 59 57 55 53 51 50 50 48 48 48 47 47 48 48 48 48 49 50 51 52 54 55 55 55 56 57 58 61 64 68 72 76 80 83 86 89 93 98 101 102 102 101
47 54 52 44 37 33 36 43 52 60 68 74 77 77 74 69 64 61 58 54 52 51 49 47 46 45 45 44 44 44 43 43 43 43 43 43 43 43 43 44 44 45 46 47 48 49 49 49 50 50 51 53 55 57 59 61 63 66 70 76 82 88 93

ECMWFFLT1_500_rhum_135.txt.gz
RH
97 96 96 93 92 95 100 102 102 102 102 102 102 102 102 102 102 102 101 101 102 103 103 103 104 103 101 101 102 101 100 101 101 101 102 101 100 101 101 101 100 93 83 81 85 85 84 85 88 91 93 97 100 101 102 101 99 94 90 88 86 83 80
98 99 102 102 99 98 99 101 101 101 101 101 101 101 101 101 101 101 101 101 101 101 101 102 102 101 100 101 102 100 100 101 100 101 101 101 102 102 102 102 102 98 91 86 86 88 86 83 83 84 85 89 94 97 99 98 94 90 88 87 85 83 80
101 100 101 102 102 102 101 100 100 101 101 101 100 100 100 100 100 101 101 101 101 100 101 101 100 100 100 100 101 100 100 101 100 101 101 100 102 103 101 101 102 100 96 91 89 89 87 83 82 82 82 84 88 90 92 91 89 88 88 86 83 81 80
102 101 100 100 101 101 102 101 100 100 100 100 100 100 100 100 100 101 101 101 101 100 101 101 101 101 100 101 101 100 100 101 101 100 101 100 100 102 101 100 101 101 99 97 94 92 90 88 86 85 84 84 85 86 87 89 89 89 89 87 84 82 80
101 101 100 100 99 99 101 101 101 100 100 100 100 100 100 100 100 100 100 100 100 100 100 101 101 100 100 101 101 100 99 100 100 100 101 101 101 101 101 101 102 101 101 102 99 96 95 94 91 90 88 86 86 86 87 88 88 88 88 87 84 82 81
101 101 101 100 98 97 97 98 100 100 100 100 100 100 100 100 100 100 100 100 100 100 100 101 100 100 100 101 101 100 100 101 101 101 102 102 101 101 100 100 101 101 102 103 101 99 98 96 93 93 91 89 88 88 88 87 86 85 83 82 81 81 82
100 100 100 100 99 98 97 97 99 100 100 100 100 101 101 100 101 100 100 100 101 100 101 102 101 100 99 99 99 98 97 98 100 101 101 101 100 99 98 97 99 100 102 102 101 100 100 98 96 95 94 92 90 89 87 85 84 83 83 84 85 87 87
100 100 100 100 100 100 100 100 100 100 100 100 100 101 102 102 102 102 101 100 100 100 100 102 102 101 100 99 99 98 98 99 101 101 101 100 98 96 95 95 98 100 101 102 101 101 100 100 99 97 97 95 92 90 89 89 91 92 91 90 89 88 87
101 101 101 101 101 101 101 101 101 101 100 100 100 99 99 98 98 98 97 96 96 98 100 101 101 99 96 94 93 93 94 95 96 97 96 93 91 91 93 97 100 101 100 101 102 101 100 101 100 98 98 98 95 95 96 98 98 96 92 92 91 88 85
98 98 98 98 98 98 99 99 99 99 99 99 99 98 95 93 92 90 89 88 88 89 89 88 85 82 78 76 75 75 77 80 83 85 85 85 85 89 95 100 102 101 100 102 103 101 100 101 100 98 99 100 99 100 101 101 99 96 96 97 96 91 88
71 73 74 75 75 76 76 77 78 79 81 82 83 83 83 83 81 80 78 77 75 74 72 70 68 65 64 63 64 67 70 73 77 80 82 83 86 91 97 100 101 101 101 101 102 101 100 101 101 99 100 101 100 101 101 101 102 102 101 99 95 92 90
41 42 44 45 46 47 47 48 50 51 52 54 55 57 58 59 59 60 61 61 62 62 61 61 60 60 60 61 63 66 69 73 76 79 81 84 87 92 97 99 100 102 101 101 102 101 100 101 101 100 102 102 101 102 103 103 103 102 100 97 93 91 90
30 30 30 31 33 34 35 35 35 36 36 36 37 37 37 38 39 41 43 44 46 48 50 53 55 57 58 60 62 65 67 70 72 75 78 81 85 88 92 96 100 103 103 102 103 102 101 101 101 102 104 103 102 103 104 103 102 100 100 98 94 93 94
31 30 30 32 35 37 38 37 36 35 33 32 32 30 29 29 29 30 30 30 31 34 36 40 43 46 49 54 59 63 68 72 75 78 82 86 89 92 95 99 103 103 103 103 104 103 102 101 101 104 105 103 101 103 103 103 102 101 102 101 97 95 93
42 45 47 49 50 49 47 45 43 41 40 39 37 35 34 33 33 32 32 31 31 31 31 32 33 35 37 41 47 55 66 76 85 92 96 99 100 101 102 104 105 103 101 101 102 101 100 100 100 102 102 101 100 102 101 101 101 101 102 100 95 91 88
67 69 69 67 63 60 57 54 52 50 49 48 46 43 41 40 39 38 38 38 38 37 37 37 38 39 42 47 52 61 74 87 97 103 106 105 103 102 103 104 102 101 100 100 101 100 100 100 100 100 100 100 100 101 100 100 101 100 99 98 94 92 92
91 85 80 76 71 68 65 61 57 53 50 47 45 42 40 40 41 42 43 44 45 46 48 49 51 55 66 78 85 89 95 100 104 105 105 104 102 101 103 104 101 100 100 100 100 100 100 100 100 100 100 100 100 100 100 100 100 99 99 99 99 98 97
100 91 84 79 74 69 63 58 54 50 47 44 43 42 42 44 48 52 56 58 61 64 68 72 75 76 82 93 99 100 100 100 101 102 102 101 101 101 101 101 100 100 100 100 100 100 100 100 100 100 100 100 100 100 100 100 100 100 100 101 101 100 99
96 89 81 73 66 60 56 54 54 54 54 54 55 55 55 57 60 63 66 68 70 75 81 88 92 93 94 98 100 100 100 100 100 100 100 99 100 100 100 100 100 100 100 100 100 100 99 100 100 100 100 100 100 100 100 100 100 100 100 100 99 100 100
83 77 70 65 62 61 61 63 64 64 64 62 61 60 58 57 58 59 61 63 67 76 85 89 93 97 100 101 102 101 101 101 101 100 100 101 100 99 99 100 100 100 100 100 100 100 100 100 100 100 100 100 100 101 100 100 100 100 101 101 101 101 102
78 77 76 74 73 70 66 62 58 53 48 44 41 38 35 34 34 34 34 36 42 53 66 77 89 98 102 102 103 104 103 103 102 101 100 100 101 100 100 100 101 101 101 101 100 100 100 100 99 100 100 100 100 101 100 101 101 101 101 102 102 102 103
85 84 78 69 60 51 44 39 35 31 30 29 28 27 27 26 25 24 23 22 23 27 34 46 64 85 101 106 105 104 104 104 102 101 101 101 100 99 99 100 101 101 101 102 102 101 102 101 100 101 101 101 102 101 99 98 98 100 103 104 104 104 103
71 60 48 40 35 31 30 30 31 31 31 32 31 30 29 28 26 25 24 23 22 21 21 25 34 53 77 96 105 106 105 105 103 100 99 100 101 101 100 101 101 100 100 101 102 103 104 104 102 103 103 103 104 104 102 99 97 99 104 106 106 105 104
40 35 33 34 35 36 36 37 37 37 36 34 33 31 29 28 27 25 24 23 21 20 20 20 20 26 39 60 84 102 107 104 102 102 102 101 101 102 102 103 103 102 101 101 101 102 106 106 104 104 105 104 105 106 106 103 100 98 100 104 106 106 106
36 38 41 43 44 44 44 43 41 39 36 34 32 30 28 27 25 23 22 21 20 19 18 18 18 18 20 28 51 83 103 105 101 100 100 101 101 101 101 101 101 101 102 102 101 101 103 104 104 103 102 101 102 103 102 102 101 98 98 101 104 105 107
45 48 49 50 50 48 46 42 39 36 34 31 29 27 26 25 24 22 21 19 18 18 17 16 16 16 17 17 24 45 71 91 101 103 102 100 100 100 101 101 101 100 101 101 101 101 100 101 102 102 102 102 102 102 100 101 103 101 99 99 100 102 104
51 52 52 51 48 45 42 39 36 34 32 30 28 26 24 23 21 20 18 18 20 20 19 19 20 19 20 20 19 21 31 48 69 88 99 103 103 100 100 100 100 101 101 101 101 100 99 97 97 98 100 103 104 105 103 103 105 105 103 101 99 97 96
52 50 49 47 45 42 38 35 33 31 29 28 26 24 23 23 21 19 21 26 31 33 32 32 31 29 27 26 26 26 25 26 34 49 67 83 94 100 102 103 102 102 102 102 102 103 102 101 99 97 97 97 99 100 101 103 105 106 104 103 102 97 91
50 48 47 44 41 37 34 32 31 29 28 27 25 23 23 23 21 22 30 40 45 47 48 48 47 46 44 41 37 35 33 31 29 30 34 44 56 69 81 90 94 97 96 95 94 93 91 89 86 81 78 75 73 71 72 76 82 88 92 93 90 86 81
50 47 43 39 35 32 30 29 28 27 26 23 22 23 27 30 30 33 40 45 46 47 48 51 54 55 56 56 55 52 48 45 41 38 35 33 33 37 43 51 60 66 69 71 71 68 65 63 61 58 55 52 48 47 47 49 55 66 76 81 83 84 83
46 41 37 34 30 29 28 27 26 24 23 22 24 27 32 33 33 34 36 37 39 42 44 47 52 55 56 57 58 58 57 54 51 49 46 44 41 38 35 35 37 39 43 48 52 54 54 54 53 52 51 49 46 44 43 43 46 51 57 64 72 81 87
39 35 32 30 28 28 27 25 24 23 23 24 25 27 31 35 38 42 47 51 54 57 59 61 62 63 64 65 64 62 61 60 58 56 54 52 51 50 46 43 40 38 37 38 40 44 48 52 54 55 56 56 55 53 51 51 52 53 55 57 61 68 74
34 32 31 30 29 27 25 23 23 23 25 30 36 42 51 60 64 65 65 64 62 59 58 58 57 56 56 57 58 58 59 59 58 58 57 57 56 57 57 55 53 51 49 47 45 44 45 47 49 51 53 53 54 53 51 50 50 51 52 52 52 53 55
33 32 32 30 27 26 24 24 27 34 45 58 68 71 71 68 63 58 54 53 53 53 52 52 51 51 50 50 49 49 50 50 51 51 51 52 52 53 54 56 56 56 55 55 55 54 54 53 54 55 56 57 57 57 57 54 53 51 51 50 49 47 45
34 32 31 28 26 26 29 38 54 68 77 79 74 66 59 55 54 54 54 54 53 51 49 47 44 42 40 39 38 38 37 37 38 38 39 41 42 43 44 46 48 49 50 51 52 53 54 54 55 55 56 58 59 62 64 65 66 66 66 67 68 67 66
33 31 28 26 29 39 53 70 82 82 74 64 58 56 58 59 58 56 52 48 43 39 36 33 30 28 27 25 24 23 23 22 22 23 23 24 25 27 29 30 32 35 37 39 41 43 45 47 48 49 50 50 51 52 54 56 58 60 61 63 65 66 68

ECMWFFLT1_500_rhum_138.txt.gz
RH
93 92 93 96 98 99 100 102 101 102 102 102 101 101 100 98 97 94 90 85 83 82 85 90 97 100 100 102 102 100 100 102 102 102 101 101 101 101 99 98 100 95 86 86 95 99 96 92 93 100 104 104 104 102 101 103 102 101 99 91 85 86 89
100 100 100 100 100 100 101 101 100 100 100 101 101 101 101 102 100 96 91 88 87 88 88 88 94 99 101 102 102 100 100 101 102 102 101 101 101 101 100 100 101 100 93 88 93 99 99 93 91 96 101 102 102 101 101 103 104 104 102 97 91 90 90
100 100 100 100 100 100 100 100 100 100 100 100 100 100 101 103 103 101 98 96 97 99 96 92 92 97 100 101 101 101 100 100 99 100 100 100 101 101 100 100 100 102 98 93 94 98 98 93 91 94 99 101 101 102 103 103 104 105 104 100 95 92 90
100 100 100 100 100 100 100 100 99 100 100 100 101 101 102 102 101 101 100 100 102 104 102 99 96 96 98 99 100 100 100 100 100 100 100 100 100 100 100 100 100 101 101 97 98 99 98 94 90 90 96 100 100 101 103 102 103 103 101 97 93 92 90
100 100 100 101 101 100 100 100 100 102 102 101 101 101 101 99 97 98 99 100 101 102 101 101 98 95 94 94 95 96 97 99 101 101 101 100 100 100 100 100 100 100 100 99 99 99 99 98 91 85 89 94 96 97 97 97 97 97 95 93 91 90 88
102 102 101 101 102 101 100 99 99 101 102 102 103 102 102 101 98 97 99 101 101 101 101 101 100 98 96 93 92 91 94 98 101 102 102 101 100 99 100 100 100 100 100 100 100 99 100 99 94 87 85 87 91 93 93 91 92 92 91 90 90 89 87
86 95 100 101 100 99 99 100 100 101 101 101 101 102 102 102 102 100 100 100 99 99 98 97 97 97 98 98 97 94 94 97 99 101 102 102 101 101 101 101 100 100 100 100 100 100 100 100 97 92 88 86 87 89 89 87 87 87 88 89 89 88 87
43 61 80 95 102 103 101 99 99 99 100 100 100 101 102 102 102 102 101 99 98 96 94 92 91 93 97 101 103 100 98 97 98 100 101 101 102 103 103 102 102 101 101 101 102 101 101 102 102 97 92 88 85 83 84 85 86 87 87 86 85 84 83
14 21 34 53 72 87 98 102 103 102 101 100 100 99 100 100 100 101 101 101 100 99 98 96 96 97 98 100 100 100 100 99 99 100 101 100 101 101 102 101 101 101 100 100 101 101 101 103 104 100 96 92 87 83 83 86 86 86 84 82 81 79 77
14 12 12 16 24 37 53 68 79 87 93 97 99 99 99 98 98 99 99 99 99 99 100 100 100 100 100 100 100 101 101 101 102 102 102 102 100 99 99 97 96 97 96 96 97 98 99 101 100 98 94 90 87 84 83 83 83 83 83 81 79 76 73
19 17 15 13 12 13 17 24 32 41 50 58 66 74 79 82 83 84 84 84 85 86 87 89 90 90 91 91 92 92 91 91 91 91 91 91 90 90 90 89 89 88 88 89 88 89 90 89 87 85 82 79 77 75 73 72 73 75 77 76 74 71 69
23 20 18 16 16 15 14 16 18 20 23 27 31 36 42 47 51 54 55 57 59 61 63 64 64 65 65 66 67 67 66 65 64 64 64 64 65 67 68 70 72 72 73 74 74 74 74 73 71 70 68 66 65 65 66 67 68 68 69 70 70 70 71
25 22 20 18 18 18 18 20 23 25 27 29 29 29 28 29 31 33 35 36 37 39 41 42 42 43 44 45 46 46 46 45 44 45 45 45 45 47 48 50 52 54 55 56 57 59 58 58 59 60 60 60 62 65 68 68 67 66 69 74 77 80 85
24 20 19 18 18 20 21 22 25 28 31 34 36 36 34 34 34 33 32 31 30 30 30 30 31 31 33 34 35 37 37 36 36 35 35 35 36 36 36 37 39 41 43 45 47 50 50 51 56 59 62 67 72 75 75 75 75 78 82 87 90 93 96
22 20 19 20 23 27 29 31 32 34 36 38 39 40 39 39 42 43 42 40 39 37 36 35 34 33 33 34 35 36 37 36 36 34 33 32 32 32 32 32 32 33 34 36 38 41 43 47 55 63 72 82 89 90 90 92 94 96 98 100 98 96 93
22 22 26 31 39 45 49 52 54 54 55 56 57 58 57 57 59 61 60 57 54 52 50 50 49 48 46 44 43 43 42 42 41 39 38 36 35 35 34 33 33 33 33 34 35 37 38 41 49 62 76 90 98 100 100 101 101 100 102 103 101 98 96
26 31 40 48 56 64 70 74 77 79 80 82 85 85 83 80 80 80 79 75 70 66 62 59 57 53 50 47 45 43 42 41 40 39 39 39 38 38 39 38 38 38 37 36 38 43 48 50 55 66 79 92 101 102 101 101 101 100 101 101 101 100 100
36 40 49 60 71 81 89 91 91 92 93 97 101 101 98 95 90 86 81 74 67 62 60 58 55 52 49 48 47 47 47 46 46 45 44 44 43 43 45 45 46 47 48 49 52 60 73 80 82 86 91 97 102 104 102 101 101 100 100 100 100 100 100
50 53 61 70 80 89 96 98 98 99 99 99 97 93 88 84 80 75 71 68 67 71 73 72 69 64 61 59 58 58 58 58 57 55 54 54 55 55 55 55 56 60 65 69 73 81 93 100 101 100 101 100 100 102 101 101 101 101 101 100 100 99 100
63 67 72 77 83 90 94 96 97 98 98 97 95 91 87 83 79 76 73 68 66 66 64 59 54 49 46 44 42 41 41 41 41 40 40 42 46 49 49 51 59 69 75 79 82 85 93 99 100 102 103 102 101 100 100 99 100 100 100 100 100 100 100
73 77 84 89 91 90 91 96 101 104 103 100 93 85 76 68 61 56 51 46 40 38 36 34 33 32 31 30 29 29 28 27 26 26 26 25 26 27 27 29 39 52 66 77 85 88 91 94 98 101 103 104 104 102 101 100 99 99 100 100 99 100 100
82 87 93 95 96 97 99 102 100 92 81 70 58 49 43 39 36 36 37 37 35 36 36 36 35 35 34 33 32 31 30 29 28 27 26 25 24 23 22 21 22 26 36 54 73 88 97 100 101 103 104 105 105 104 102 100 98 97 99 101 101 100 99
90 93 97 99 101 100 92 79 65 52 44 39 38 39 40 40 41 43 45 44 42 41 41 39 38 36 34 33 32 31 30 29 28 27 25 25 24 23 22 22 21 20 21 28 43 64 85 99 104 105 105 104 103 102 101 102 101 99 99 100 101 102 100
97 102 104 99 89 74 56 44 38 38 39 42 45 48 48 47 46 46 45 44 43 42 40 38 36 34 32 31 29 28 27 26 25 25 24 23 23 22 21 20 20 20 20 21 27 41 62 82 97 105 106 102 101 101 101 102 102 101 100 99 99 100 101
105 102 89 71 56 45 40 42 45 46 47 47 48 48 47 46 44 43 42 41 40 38 36 34 32 30 28 27 26 25 25 24 23 22 22 21 20 20 20 19 19 19 19 19 21 31 47 66 85 101 105 102 101 103 102 101 102 102 102 101 99 100 102
94 75 56 46 45 47 51 54 54 53 51 49 47 46 45 43 41 40 39 37 36 34 32 30 28 26 25 24 23 22 22 21 21 20 19 19 19 18 19 19 19 19 20 19 18 25 40 57 76 94 102 101 102 103 101 99 101 103 103 100 99 100 101
66 50 46 49 53 57 59 60 58 55 52 49 48 46 45 43 40 38 35 32 30 28 26 25 24 22 22 21 20 20 19 18 18 18 19 20 22 24 25 27 27 26 25 24 22 22 30 46 68 90 101 100 99 101 101 101 101 101 101 100 100 101 101
50 49 55 59 61 62 63 62 59 55 52 49 46 42 39 36 33 31 29 27 27 26 24 24 23 21 20 19 19 18 19 19 19 21 23 27 30 33 35 36 37 36 35 35 34 32 29 34 49 74 95 103 102 99 99 100 101 101 102 101 99 101 101
54 60 64 66 67 67 65 61 56 51 46 42 38 34 31 29 28 28 27 26 25 23 21 20 20 21 22 23 24 25 26 27 29 29 31 33 34 36 38 38 39 39 40 41 44 46 43 40 39 48 67 88 101 103 102 100 99 100 101 101 101 102 102
65 69 70 71 69 65 59 52 46 41 37 34 31 29 28 27 26 25 23 21 21 23 28 32 37 40 43 45 46 47 47 47 48 47 48 48 47 47 48 48 48 47 47 47 48 48 51 52 51 49 49 58 73 86 96 102 104 102 102 102 102 103 102
74 74 72 68 61 53 46 41 36 33 30 29 29 28 26 24 22 23 27 33 39 44 49 51 52 53 53 52 52 52 52 51 51 51 51 51 52 51 51 51 52 53 53 54 54 53 53 54 57 58 57 55 56 60 69 81 91 96 100 103 105 104 102
75 71 63 55 47 41 36 33 31 30 30 29 27 24 24 27 35 43 50 54 55 53 51 50 48 48 47 47 47 46 46 46 45 46 46 46 46 47 47 47 48 49 50 51 53 54 56 57 56 58 60 62 63 62 61 63 68 71 75 83 90 94 97
67 58 50 43 38 34 32 31 31 30 27 24 25 31 42 52 58 59 57 53 50 49 47 46 46 44 42 40 38 36 35 34 33 32 33 33 34 35 36 37 39 41 42 44 46 47 50 53 55 57 59 61 65 67 67 68 67 65 63 65 69 71 75
54 46 40 36 33 32 32 31 28 26 27 33 43 54 61 62 58 55 54 53 50 47 44 39 35 31 28 25 23 21 20 19 19 18 18 19 19 20 20 22 23 25 27 30 33 36 38 41 45 48 52 55 58 62 65 69 71 71 69 68 68 66 66
42 38 35 34 34 33 30 27 28 38 51 61 66 64 60 56 55 56 54 49 42 35 30 26 22 20 19 18 17 17 17 16 16 17 16 16 16 16 16 16 16 17 18 18 19 21 23 26 30 33 37 42 46 50 55 59 63 67 69 69 70 71 72
37 37 36 35 32 29 30 39 55 69 75 71 65 61 60 58 55 49 41 34 28 24 21 20 19 19 19 20 20 20 20 19 19 19 18 19 19 18 19 19 19 19 19 19 19 18 17 17 18 20 22 25 28 33 38 43 47 53 58 61 64 66 69

ECMWFFLT1_500_rhum_141.txt.gz
RH
100 101 102 102 101 100 99 98 97 96 97 99 101 101 99 96 94 92 90 88 87 87 89 92 96 99 101 102 103 103 103 103 102 102 102 101 100 100 100 99 97 91 86 88 93 95 95 95 93 86 82 82 86 89 90 91 93 91 90 90 91 91 90
100 101 101 100 100 100 100 100 101 102 103 102 102 102 101 101 100 98 95 92 92 92 94 95 97 100 101 102 104 104 103 103 103 102 102 102 102 101 100 98 96 91 84 82 85 89 92 97 99 97 90 85 87 92 95 96 97 98 96 93 93 93 93
96 99 101 101 101 101 101 100 99 100 101 101 101 101 102 101 102 102 101 101 99 98 100 100 100 101 101 101 102 102 101 101 101 101 101 101 102 103 102 100 99 94 86 80 80 82 85 90 94 96 93 88 86 90 97 102 102 102 102 100 96 94 93
62 70 77 85 90 94 97 99 101 102 102 101 100 100 100 100 101 101 102 103 101 101 102 102 100 100 100 100 101 101 101 101 101 100 101 102 103 102 102 102 102 98 91 83 78 77 80 87 91 90 89 86 82 81 86 94 100 103 103 102 101 98 95
32 35 38 44 49 54 60 67 75 83 91 97 100 102 101 100 100 100 101 102 100 100 100 101 101 101 100 101 100 100 101 102 102 102 103 104 103 102 102 102 103 103 100 93 84 78 78 82 85 86 86 84 80 77 75 79 87 97 102 103 103 103 101
26 27 27 27 27 27 28 30 33 38 46 58 70 82 91 97 100 101 100 100 100 101 101 100 100 100 100 101 100 99 100 101 101 102 102 102 101 102 102 101 100 102 104 100 91 83 80 80 80 80 82 82 81 78 74 71 72 81 93 101 103 103 103
26 28 30 30 29 28 26 25 24 23 22 24 29 37 50 65 80 92 100 103 102 100 99 100 100 100 100 101 101 101 100 100 101 102 102 101 100 101 102 102 101 101 103 102 96 88 84 84 83 79 77 78 80 80 76 73 70 71 80 95 104 105 102
31 31 32 33 34 34 33 31 30 28 25 23 21 19 21 26 37 53 73 91 103 105 102 99 97 97 98 100 101 101 101 100 100 101 102 101 100 101 101 102 102 102 102 102 101 96 91 91 92 88 82 78 80 81 78 76 77 76 76 85 99 106 105
43 40 39 39 39 39 40 39 37 35 32 29 27 24 21 18 17 20 28 44 64 82 95 101 102 101 100 99 99 98 98 98 98 98 99 99 99 101 103 103 104 105 104 104 104 102 99 100 100 95 91 88 87 90 90 88 86 82 77 78 87 96 102
55 53 50 48 46 44 44 43 42 40 38 36 33 30 27 24 21 18 16 16 20 31 48 64 78 88 95 100 102 102 101 101 100 99 99 99 99 99 101 101 102 103 103 103 103 102 101 103 102 97 95 94 93 96 102 101 97 91 85 82 84 87 93
63 65 64 62 60 56 52 50 47 45 42 40 38 35 32 29 26 23 21 19 17 15 16 21 29 38 49 62 74 84 90 93 95 97 99 100 100 100 101 102 102 102 102 101 102 101 100 102 101 98 99 99 97 97 101 103 103 101 93 88 89 90 90
72 78 79 78 75 71 67 62 57 52 48 44 42 39 35 32 30 27 25 22 21 19 18 16 15 16 18 24 32 41 49 55 61 67 72 77 83 87 90 93 95 96 97 98 99 99 99 100 100 99 101 102 101 100 102 103 104 102 96 91 92 96 94
89 93 95 93 89 84 79 73 67 60 55 49 46 42 38 35 32 30 28 25 23 21 19 18 18 19 20 22 24 27 29 31 34 36 40 44 50 55 60 65 70 73 75 79 83 85 86 88 89 89 91 92 93 94 95 96 95 93 91 88 88 90 93
100 101 102 104 103 97 90 83 75 67 60 54 50 45 41 37 33 30 26 24 22 20 19 19 19 21 23 26 30 32 34 34 34 33 33 33 33 35 36 39 42 45 49 53 57 61 65 67 69 70 71 71 72 73 73 74 75 75 75 75 74 75 78
101 101 101 104 107 107 100 90 80 72 64 57 51 45 39 34 30 27 24 22 20 19 19 20 21 24 26 29 32 34 36 36 37 37 37 37 36 35 34 33 33 33 34 35 37 40 42 44 46 47 50 51 52 54 54 55 55 55 55 56 56 57 59
100 100 101 103 106 107 103 92 81 70 61 52 44 38 33 29 26 23 22 22 22 23 27 31 35 37 38 39 41 43 44 44 42 41 40 38 38 37 36 36 36 36 36 36 37 37 36 36 35 35 36 37 39 41 43 43 44 44 44 44 44 44 45
100 100 101 102 104 105 99 85 70 58 48 41 36 31 28 26 26 26 28 32 35 41 47 52 55 58 60 62 66 68 70 69 66 62 57 54 52 53 53 53 52 52 51 50 49 47 46 44 42 41 40 39 38 38 39 40 40 38 38 38 38 37 37
100 101 102 103 103 99 86 68 54 45 39 36 34 33 33 35 38 41 44 50 58 68 74 75 76 78 80 85 90 92 92 91 89 84 79 75 73 71 69 67 64 60 58 55 53 51 49 47 45 44 43 41 39 38 38 39 39 37 37 38 37 36 35
100 101 103 104 99 85 67 52 45 42 41 43 43 43 44 49 53 57 64 73 81 87 88 87 86 85 85 87 88 88 87 86 85 82 78 76 75 74 70 65 61 60 60 60 57 55 53 50 48 45 44 43 43 41 41 43 42 39 39 39 39 39 40
101 102 104 102 88 68 54 48 48 48 49 51 51 51 55 58 60 68 79 87 90 92 93 92 93 91 89 87 85 82 80 78 76 74 71 69 70 69 66 62 58 58 60 60 58 56 55 54 52 51 51 50 50 50 50 53 54 52 48 48 49 51 51
101 103 105 97 77 61 57 56 56 56 56 57 59 63 64 63 68 82 93 94 92 92 91 88 84 78 72 67 62 59 56 53 51 50 48 47 46 44 43 42 40 39 39 39 39 38 38 37 37 37 37 36 37 38 38 40 43 45 44 46 50 56 62
101 104 107 97 77 67 68 68 66 67 66 67 70 73 72 73 83 94 95 86 79 73 66 58 52 47 45 43 43 43 42 41 41 40 40 39 37 36 36 35 33 32 32 31 31 30 29 29 29 28 28 28 27 27 26 26 26 27 27 28 30 37 48
101 104 108 103 92 86 84 84 83 82 81 84 87 88 88 87 84 77 66 58 53 48 44 44 44 45 47 49 49 49 48 47 46 45 44 42 41 41 40 38 37 37 36 34 34 33 32 31 30 30 29 29 28 27 27 26 25 24 24 23 22 22 25
101 102 103 104 102 100 99 99 96 91 93 99 100 94 87 76 62 50 45 45 46 46 47 49 50 50 50 50 49 48 47 46 45 43 42 41 41 40 39 38 38 36 36 35 34 32 31 30 29 29 28 27 27 27 26 26 26 25 24 24 23 23 21
100 100 101 101 102 101 101 101 100 98 99 97 85 71 61 55 50 49 50 51 50 51 52 52 52 51 50 48 47 46 44 43 41 40 38 37 36 35 33 32 32 31 30 29 28 27 27 26 26 25 25 25 24 24 24 24 24 23 23 23 22 22 23
100 100 100 100 100 100 101 101 100 97 90 76 60 52 51 53 56 58 58 57 56 56 55 53 51 48 45 42 40 38 36 35 33 32 31 30 29 28 27 26 26 26 25 24 24 23 23 22 22 21 21 21 21 21 21 21 21 21 21 22 22 22 22
100 100 100 100 101 101 100 96 89 80 69 58 54 56 58 61 63 64 62 61 58 55 50 45 41 38 35 33 31 30 28 27 26 25 24 23 22 22 21 20 20 19 19 19 19 19 18 18 19 18 18 19 19 19 19 19 19 20 20 20 21 22 22
100 100 100 101 99 94 88 80 72 65 61 60 62 64 65 67 68 66 61 55 49 43 38 35 32 30 29 27 25 24 23 22 22 21 21 20 21 21 21 21 21 21 21 21 20 20 20 20 20 20 20 20 20 20 21 22 22 23 23 24 26 26 25
100 101 99 95 89 81 74 70 67 66 66 68 69 70 70 67 62 54 47 40 36 33 31 29 28 26 25 25 25 26 27 28 29 30 31 32 33 33 33 34 33 33 33 33 32 32 32 32 33 33 32 31 30 30 29 29 30 31 31 32 35 36 35
100 96 89 82 77 74 73 73 73 74 74 74 72 67 60 52 44 38 35 32 30 29 28 27 28 30 33 36 39 41 42 43 43 43 43 42 41 40 39 38 37 37 36 36 36 36 36 37 38 39 40 42 43 44 45 45 44 42 40 39 39 41 43
89 83 78 76 76 78 79 79 77 75 71 65 57 48 41 37 34 32 30 29 28 30 33 37 42 46 48 49 49 48 46 44 41 38 36 34 32 31 30 29 28 28 28 28 29 30 31 32 33 34 36 39 41 44 48 52 55 56 55 52 48 46 47
81 79 79 80 81 81 78 75 70 63 54 45 39 36 34 32 31 29 31 35 40 45 50 53 53 52 49 46 42 38 34 30 27 24 22 20 19 18 17 17 16 16 16 17 18 18 19 21 23 25 27 30 33 36 39 43 49 53 57 60 60 57 54
84 82 81 79 75 71 66 59 51 43 38 36 35 34 31 31 33 40 47 53 57 57 55 52 47 42 38 33 28 24 21 19 17 17 16 16 16 15 15 15 15 15 14 14 14 14 14 14 15 16 17 18 21 25 28 32 38 42 47 52 57 60 61
79 75 71 66 60 54 47 40 37 35 36 35 32 32 37 44 53 60 62 61 58 53 46 41 35 29 25 21 19 18 18 18 18 19 19 19 19 19 19 18 17 16 16 15 15 15 15 15 15 15 15 15 15 16 18 20 23 28 33 38 44 49 55
68 62 56 49 43 39 36 35 36 35 32 32 37 48 59 66 67 65 61 55 49 42 34 29 24 21 20 19 20 20 21 22 22 23 23 23 22 22 21 20 19 18 17 16 16 15 15 15 15 15 15 16 16 16 17 17 17 19 21 24 29 34 39
53 46 41 38 35 36 37 36 33 32 37 48 61 70 72 70 65 59 52 44 35 29 25 22 21 21 22 23 24 25 26 28 28 28 27 27 26 26 26 25 24 23 21 19 19 18 17 16 16 15 15 15 15 15 16 17 18 18 19 19 19 22 25